Wetterdaten: Donnerstag, 22.10.2015
Datum Zeit Temp. Aussen Temp. o. S. +5cm Feuchte Auss BlattFeu 1 Luftdruck Regen Sonnenschein Regendauer Solar Windben Empfang
22.10.2015 00:00 10,7 C 10,6 C 8,9 C 90 % 0 lf 1015,3 hPa 0,0 l/m 0 min 0 min 0 W/m 16,7 km/h (3 Bft) 93,62 %
22.10.2015 00:02 10,6 C 10,0 C 8,9 C 90 % 1 lf 1015,3 hPa 0,0 l/m 0 min 0 min 0 W/m 18,8 km/h (3 Bft) 95,24 %
22.10.2015 00:06 10,6 C 10,0 C 8,9 C 90 % 0 lf 1015,3 hPa 0,0 l/m 0 min 0 min 0 W/m 23,0 km/h (4 Bft) 97,87 %
22.10.2015 00:08 10,6 C 10,0 C 8,9 C 90 % 0 lf 1015,3 hPa 0,0 l/m 0 min 0 min 0 W/m 23,0 km/h (4 Bft) 93,62 %
22.10.2015 00:10 10,6 C 10,0 C 8,9 C 91 % 0 lf 1015,3 hPa 0,0 l/m 0 min 0 min 0 W/m 12,6 km/h (3 Bft) 97,83 %
22.10.2015 00:12 10,5 C 10,0 C 8,9 C 91 % 0 lf 1015,2 hPa 0,0 l/m 0 min 0 min 0 W/m 14,6 km/h (3 Bft) 95,74 %
22.10.2015 00:14 10,5 C 10,0 C 8,9 C 91 % 0 lf 1015,2 hPa 0,0 l/m 0 min 0 min 0 W/m 16,7 km/h (3 Bft) 93,62 %
22.10.2015 00:16 10,5 C 10,0 C 8,9 C 91 % 0 lf 1015,2 hPa 0,0 l/m 0 min 0 min 0 W/m 14,6 km/h (3 Bft) 91,49 %
22.10.2015 00:18 10,4 C 10,0 C 8,9 C 91 % 0 lf 1015,3 hPa 0,0 l/m 0 min 0 min 0 W/m 23,0 km/h (4 Bft) 93,62 %
22.10.2015 00:20 10,4 C 10,0 C 8,9 C 91 % 0 lf 1015,2 hPa 0,0 l/m 0 min 0 min 0 W/m 20,9 km/h (4 Bft) 95,74 %
22.10.2015 00:22 10,4 C 10,0 C 8,9 C 91 % 1 lf 1015,2 hPa 0,0 l/m 0 min 0 min 0 W/m 12,6 km/h (3 Bft) 95,65 %
22.10.2015 00:24 10,4 C 10,0 C 8,9 C 91 % 1 lf 1015,2 hPa 0,0 l/m 0 min 0 min 0 W/m 14,6 km/h (3 Bft) 95,74 %
22.10.2015 00:26 10,4 C 10,0 C 8,9 C 91 % 1 lf 1015,1 hPa 0,0 l/m 0 min 0 min 0 W/m 20,9 km/h (4 Bft) 95,74 %
22.10.2015 00:28 10,4 C 10,0 C 8,9 C 92 % 2 lf 1015,2 hPa 0,0 l/m 0 min 0 min 0 W/m 14,6 km/h (3 Bft) 95,74 %
22.10.2015 00:30 10,3 C 10,0 C 8,9 C 92 % 2 lf 1015,1 hPa 0,0 l/m 0 min 0 min 0 W/m 8,4 km/h (2 Bft) 91,49 %
22.10.2015 00:32 10,3 C 10,0 C 8,9 C 92 % 3 lf 1015,1 hPa 0,0 l/m 0 min 0 min 0 W/m 16,7 km/h (3 Bft) 95,74 %
22.10.2015 00:34 10,3 C 9,4 C 8,3 C 92 % 3 lf 1015,1 hPa 0,0 l/m 0 min 0 min 0 W/m 16,7 km/h (3 Bft) 86,96 %
22.10.2015 00:36 10,3 C 9,4 C 8,3 C 92 % 3 lf 1015,0 hPa 0,0 l/m 0 min 0 min 0 W/m 16,7 km/h (3 Bft) 95,74 %
22.10.2015 00:38 10,3 C 9,4 C 8,3 C 92 % 3 lf 1015,0 hPa 0,0 l/m 0 min 0 min 0 W/m 16,7 km/h (3 Bft) 93,62 %
22.10.2015 00:40 10,3 C 9,4 C 8,3 C 92 % 3 lf 1015,1 hPa 0,0 l/m 0 min 0 min 0 W/m 14,6 km/h (3 Bft) 97,87 %
22.10.2015 00:42 10,2 C 9,4 C 8,3 C 92 % 3 lf 1015,1 hPa 0,0 l/m 0 min 0 min 0 W/m 20,9 km/h (4 Bft) 97,87 %
22.10.2015 00:44 10,2 C 9,4 C 8,3 C 93 % 2 lf 1015,0 hPa 0,0 l/m 0 min 0 min 0 W/m 12,6 km/h (3 Bft) 97,87 %
22.10.2015 00:46 10,2 C 9,4 C 8,3 C 93 % 2 lf 1015,0 hPa 0,0 l/m 0 min 0 min 0 W/m 18,8 km/h (3 Bft) 97,83 %
22.10.2015 00:48 10,2 C 9,4 C 8,3 C 93 % 2 lf 1014,9 hPa 0,0 l/m 0 min 0 min 0 W/m 16,7 km/h (3 Bft) 93,62 %
22.10.2015 00:50 10,2 C 9,4 C 8,3 C 93 % 1 lf 1015,0 hPa 0,0 l/m 0 min 0 min 0 W/m 14,6 km/h (3 Bft) 97,87 %
22.10.2015 00:52 10,2 C 9,4 C 8,3 C 93 % 1 lf 1015,0 hPa 0,0 l/m 0 min 0 min 0 W/m 12,6 km/h (3 Bft) 100,00 %
22.10.2015 00:54 10,2 C 10,0 C 8,3 C 93 % 1 lf 1015,0 hPa 0,0 l/m 0 min 0 min 0 W/m 8,4 km/h (2 Bft) 100,00 %
22.10.2015 00:56 10,1 C 10,0 C 8,3 C 93 % 1 lf 1015,0 hPa 0,0 l/m 0 min 0 min 0 W/m 14,6 km/h (3 Bft) 97,87 %
22.10.2015 00:58 10,1 C 10,0 C 8,3 C 93 % 1 lf 1014,9 hPa 0,0 l/m 0 min 0 min 0 W/m 16,7 km/h (3 Bft) 100,00 %
22.10.2015 01:00 10,1 C 10,0 C 8,9 C 93 % 1 lf 1014,9 hPa 0,0 l/m 0 min 0 min 0 W/m 12,6 km/h (3 Bft) 100,00 %
22.10.2015 01:02 10,1 C 10,0 C 8,9 C 93 % 1 lf 1014,9 hPa 0,0 l/m 0 min 0 min 0 W/m 10,5 km/h (2 Bft) 95,74 %
22.10.2015 01:04 10,1 C 10,0 C 8,9 C 94 % 2 lf 1014,9 hPa 0,0 l/m 0 min 0 min 0 W/m 23,0 km/h (4 Bft) 97,87 %
22.10.2015 01:06 10,1 C 10,0 C 8,9 C 94 % 1 lf 1014,9 hPa 0,0 l/m 0 min 0 min 0 W/m 20,9 km/h (4 Bft) 100,00 %
22.10.2015 01:08 10,1 C 10,0 C 8,9 C 94 % 1 lf 1014,9 hPa 0,0 l/m 0 min 0 min 0 W/m 14,6 km/h (3 Bft) 100,00 %
22.10.2015 01:10 10,1 C 10,0 C 8,9 C 94 % 2 lf 1014,8 hPa 0,0 l/m 0 min 0 min 0 W/m 12,6 km/h (3 Bft) 97,87 %
22.10.2015 01:12 10,1 C 9,4 C 8,9 C 94 % 2 lf 1014,8 hPa 0,0 l/m 0 min 0 min 0 W/m 14,6 km/h (3 Bft) 100,00 %
22.10.2015 01:14 10,1 C 9,4 C 8,9 C 94 % 2 lf 1014,8 hPa 0,0 l/m 0 min 0 min 0 W/m 10,5 km/h (2 Bft) 91,49 %
22.10.2015 01:16 10,1 C 9,4 C 8,9 C 94 % 2 lf 1014,8 hPa 0,0 l/m 0 min 0 min 0 W/m 16,7 km/h (3 Bft) 97,87 %
22.10.2015 01:18 10,0 C 9,4 C 8,9 C 94 % 2 lf 1014,7 hPa 0,0 l/m 0 min 0 min 0 W/m 12,6 km/h (3 Bft) 97,87 %
22.10.2015 01:20 10,0 C 9,4 C 8,9 C 94 % 2 lf 1014,6 hPa 0,0 l/m 0 min 0 min 0 W/m 16,7 km/h (3 Bft) 97,83 %
22.10.2015 01:22 10,0 C 9,4 C 8,3 C 94 % 2 lf 1014,6 hPa 0,0 l/m 0 min 0 min 0 W/m 14,6 km/h (3 Bft) 97,87 %
22.10.2015 01:24 10,0 C 10,0 C 8,9 C 94 % 2 lf 1014,6 hPa 0,0 l/m 0 min 0 min 0 W/m 23,0 km/h (4 Bft) 95,74 %
22.10.2015 01:26 10,0 C 10,0 C 8,9 C 95 % 2 lf 1014,6 hPa 0,0 l/m 0 min 0 min 0 W/m 20,9 km/h (4 Bft) 95,74 %
22.10.2015 01:28 10,0 C 10,0 C 8,9 C 95 % 1 lf 1014,6 hPa 0,0 l/m 0 min 0 min 0 W/m 18,8 km/h (3 Bft) 97,87 %
22.10.2015 01:30 10,0 C 10,0 C 8,9 C 95 % 1 lf 1014,6 hPa 0,0 l/m 0 min 0 min 0 W/m 16,7 km/h (3 Bft) 97,87 %
22.10.2015 01:32 10,0 C 10,0 C 8,9 C 95 % 1 lf 1014,6 hPa 0,0 l/m 0 min 0 min 0 W/m 20,9 km/h (4 Bft) 97,87 %
22.10.2015 01:34 10,0 C 10,0 C 8,9 C 95 % 1 lf 1014,6 hPa 0,0 l/m 0 min 0 min 0 W/m 16,7 km/h (3 Bft) 95,65 %
22.10.2015 01:36 10,0 C 10,0 C 8,9 C 95 % 1 lf 1014,7 hPa 0,0 l/m 0 min 0 min 0 W/m 20,9 km/h (4 Bft) 95,74 %
22.10.2015 01:38 9,9 C 10,0 C 8,9 C 95 % 1 lf 1014,6 hPa 0,0 l/m 0 min 0 min 0 W/m 16,7 km/h (3 Bft) 97,87 %
22.10.2015 01:40 9,9 C 10,0 C 8,9 C 95 % 1 lf 1014,6 hPa 0,0 l/m 0 min 0 min 0 W/m 16,7 km/h (3 Bft) 97,87 %
22.10.2015 01:42 9,9 C 10,0 C 8,9 C 95 % 1 lf 1014,6 hPa 0,0 l/m 0 min 0 min 0 W/m 14,6 km/h (3 Bft) 91,49 %
22.10.2015 01:44 9,9 C 10,0 C 8,9 C 95 % 1 lf 1014,6 hPa 0,0 l/m 0 min 0 min 0 W/m 14,6 km/h (3 Bft) 95,65 %
22.10.2015 01:46 9,9 C 10,0 C 8,9 C 95 % 1 lf 1014,5 hPa 0,0 l/m 0 min 0 min 0 W/m 14,6 km/h (3 Bft) 97,87 %
22.10.2015 01:48 9,9 C 10,0 C 8,9 C 95 % 1 lf 1014,6 hPa 0,0 l/m 0 min 0 min 0 W/m 10,5 km/h (2 Bft) 97,87 %
22.10.2015 01:50 9,9 C 10,0 C 8,9 C 95 % 1 lf 1014,6 hPa 0,0 l/m 0 min 0 min 0 W/m 20,9 km/h (4 Bft) 97,87 %
22.10.2015 01:52 9,9 C 10,0 C 8,9 C 95 % 1 lf 1014,5 hPa 0,0 l/m 0 min 0 min 0 W/m 16,7 km/h (3 Bft) 97,87 %
22.10.2015 01:54 9,9 C 10,0 C 8,9 C 95 % 1 lf 1014,6 hPa 0,0 l/m 0 min 0 min 0 W/m 20,9 km/h (4 Bft) 97,87 %
22.10.2015 01:56 9,9 C 10,0 C 8,9 C 95 % 1 lf 1014,4 hPa 0,0 l/m 0 min 0 min 0 W/m 14,6 km/h (3 Bft) 93,48 %
22.10.2015 01:58 9,9 C 10,0 C 8,9 C 95 % 1 lf 1014,4 hPa 0,0 l/m 0 min 0 min 0 W/m 14,6 km/h (3 Bft) 95,74 %
22.10.2015 02:00 9,9 C 10,0 C 8,9 C 96 % 1 lf 1014,4 hPa 0,0 l/m 0 min 0 min 0 W/m 12,6 km/h (3 Bft) 93,62 %
22.10.2015 02:02 9,9 C 10,0 C 8,9 C 96 % 1 lf 1014,4 hPa 0,0 l/m 0 min 0 min 0 W/m 16,7 km/h (3 Bft) 97,87 %
22.10.2015 02:04 9,9 C 10,0 C 8,9 C 96 % 1 lf 1014,5 hPa 0,0 l/m 0 min 0 min 0 W/m 14,6 km/h (3 Bft) 97,87 %
22.10.2015 02:06 9,9 C 10,0 C 8,9 C 96 % 1 lf 1014,5 hPa 0,0 l/m 0 min 0 min 0 W/m 16,7 km/h (3 Bft) 97,87 %
22.10.2015 02:08 9,9 C 10,0 C 8,9 C 96 % 1 lf 1014,5 hPa 0,0 l/m 0 min 0 min 0 W/m 10,5 km/h (2 Bft) 97,83 %
22.10.2015 02:10 9,9 C 10,0 C 8,9 C 96 % 1 lf 1014,4 hPa 0,0 l/m 0 min 0 min 0 W/m 10,5 km/h (2 Bft) 95,74 %
22.10.2015 02:12 9,9 C 10,0 C 8,9 C 96 % 1 lf 1014,4 hPa 0,0 l/m 0 min 0 min 0 W/m 18,8 km/h (3 Bft) 97,87 %
22.10.2015 02:14 9,9 C 10,0 C 8,9 C 96 % 1 lf 1014,3 hPa 0,0 l/m 0 min 0 min 0 W/m 18,8 km/h (3 Bft) 97,87 %
22.10.2015 02:16 9,9 C 10,0 C 8,9 C 96 % 1 lf 1014,3 hPa 0,0 l/m 0 min 0 min 0 W/m 18,8 km/h (3 Bft) 97,87 %
22.10.2015 02:18 9,9 C 10,0 C 8,9 C 96 % 1 lf 1014,3 hPa 0,0 l/m 0 min 0 min 0 W/m 27,2 km/h (4 Bft) 97,83 %
22.10.2015 02:20 9,9 C 10,0 C 8,9 C 96 % 1 lf 1014,2 hPa 0,0 l/m 0 min 0 min 0 W/m 20,9 km/h (4 Bft) 95,74 %
22.10.2015 02:22 9,9 C 10,0 C 8,9 C 96 % 1 lf 1014,3 hPa 0,0 l/m 0 min 0 min 0 W/m 12,6 km/h (3 Bft) 97,87 %
22.10.2015 02:24 9,9 C 10,0 C 8,9 C 96 % 1 lf 1014,2 hPa 0,0 l/m 0 min 0 min 0 W/m 14,6 km/h (3 Bft) 95,74 %
22.10.2015 02:26 9,9 C 10,0 C 8,9 C 96 % 1 lf 1014,2 hPa 0,0 l/m 0 min 0 min 0 W/m 18,8 km/h (3 Bft) 97,87 %
22.10.2015 02:28 9,9 C 10,0 C 8,9 C 96 % 1 lf 1014,1 hPa 0,0 l/m 0 min 0 min 0 W/m 10,5 km/h (2 Bft) 97,87 %
22.10.2015 02:30 9,9 C 10,0 C 8,9 C 96 % 2 lf 1014,2 hPa 0,0 l/m 0 min 0 min 0 W/m 18,8 km/h (3 Bft) 97,87 %
22.10.2015 02:32 9,9 C 10,0 C 8,9 C 96 % 1 lf 1014,1 hPa 0,0 l/m 0 min 0 min 0 W/m 18,8 km/h (3 Bft) 100,00 %
22.10.2015 02:34 9,9 C 10,0 C 8,9 C 96 % 1 lf 1014,2 hPa 0,0 l/m 0 min 0 min 0 W/m 16,7 km/h (3 Bft) 97,87 %
22.10.2015 02:36 9,9 C 10,0 C 8,9 C 96 % 1 lf 1014,2 hPa 0,0 l/m 0 min 0 min 0 W/m 8,4 km/h (2 Bft) 100,00 %
22.10.2015 02:38 9,9 C 10,0 C 8,9 C 96 % 2 lf 1014,2 hPa 0,0 l/m 0 min 0 min 0 W/m 14,6 km/h (3 Bft) 100,00 %
22.10.2015 02:40 9,9 C 10,0 C 8,9 C 96 % 2 lf 1014,2 hPa 0,0 l/m 0 min 0 min 0 W/m 18,8 km/h (3 Bft) 95,74 %
22.10.2015 02:42 9,9 C 10,0 C 8,9 C 96 % 3 lf 1014,2 hPa 0,0 l/m 0 min 0 min 0 W/m 14,6 km/h (3 Bft) 95,65 %
22.10.2015 02:44 9,9 C 10,0 C 8,9 C 96 % 3 lf 1014,2 hPa 0,0 l/m 0 min 0 min 0 W/m 14,6 km/h (3 Bft) 97,87 %
22.10.2015 02:46 9,9 C 10,0 C 8,9 C 96 % 3 lf 1014,1 hPa 0,0 l/m 0 min 0 min 0 W/m 16,7 km/h (3 Bft) 97,87 %
22.10.2015 02:48 9,9 C 10,0 C 8,9 C 96 % 4 lf 1014,2 hPa 0,0 l/m 0 min 0 min 0 W/m 12,6 km/h (3 Bft) 100,00 %
22.10.2015 02:50 9,9 C 10,0 C 8,9 C 96 % 7 lf 1014,1 hPa 0,0 l/m 0 min 0 min 0 W/m 14,6 km/h (3 Bft) 91,49 %
22.10.2015 02:52 9,9 C 10,0 C 8,9 C 96 % 10 lf 1014,1 hPa 0,0 l/m 0 min 0 min 0 W/m 18,8 km/h (3 Bft) 93,62 %
22.10.2015 02:54 9,9 C 10,0 C 8,9 C 96 % 12 lf 1014,1 hPa 0,0 l/m 0 min 0 min 0 W/m 14,6 km/h (3 Bft) 95,65 %
22.10.2015 02:56 9,9 C 10,0 C 8,9 C 96 % 13 lf 1014,1 hPa 0,0 l/m 0 min 0 min 0 W/m 14,6 km/h (3 Bft) 95,74 %
22.10.2015 02:58 9,9 C 10,0 C 8,9 C 96 % 14 lf 1014,1 hPa 0,0 l/m 0 min 0 min 0 W/m 12,6 km/h (3 Bft) 95,74 %
22.10.2015 03:00 9,9 C 9,4 C 8,9 C 96 % 15 lf 1014,1 hPa 0,0 l/m 0 min 0 min 0 W/m 12,6 km/h (3 Bft) 95,74 %
22.10.2015 03:02 9,9 C 9,4 C 8,9 C 96 % 15 lf 1014,1 hPa 0,0 l/m 0 min 0 min 0 W/m 12,6 km/h (3 Bft) 95,74 %
22.10.2015 03:04 9,9 C 9,4 C 8,9 C 96 % 15 lf 1014,1 hPa 0,0 l/m 0 min 0 min 0 W/m 12,6 km/h (3 Bft) 87,23 %
22.10.2015 03:06 9,9 C 10,0 C 8,9 C 96 % 15 lf 1014,1 hPa 0,0 l/m 0 min 0 min 0 W/m 16,7 km/h (3 Bft) 93,48 %
22.10.2015 03:08 9,9 C 10,0 C 8,9 C 96 % 15 lf 1014,1 hPa 0,0 l/m 0 min 0 min 0 W/m 10,5 km/h (2 Bft) 93,62 %
22.10.2015 03:10 9,9 C 10,0 C 8,9 C 96 % 15 lf 1014,1 hPa 0,0 l/m 0 min 0 min 0 W/m 12,6 km/h (3 Bft) 93,62 %
22.10.2015 03:12 9,9 C 10,0 C 8,9 C 96 % 15 lf 1014,1 hPa 0,0 l/m 0 min 0 min 0 W/m 16,7 km/h (3 Bft) 95,74 %
22.10.2015 03:14 9,9 C 9,4 C 8,9 C 96 % 15 lf 1014,1 hPa 0,0 l/m 0 min 0 min 0 W/m 12,6 km/h (3 Bft) 95,74 %
22.10.2015 03:16 9,9 C 9,4 C 8,9 C 96 % 15 lf 1014,1 hPa 0,0 l/m 0 min 0 min 0 W/m 16,7 km/h (3 Bft) 95,74 %
22.10.2015 03:18 9,9 C 9,4 C 8,9 C 96 % 15 lf 1014,1 hPa 0,0 l/m 0 min 0 min 0 W/m 18,8 km/h (3 Bft) 91,30 %
22.10.2015 03:20 9,9 C 9,4 C 8,9 C 96 % 15 lf 1014,1 hPa 0,0 l/m 0 min 0 min 0 W/m 8,4 km/h (2 Bft) 95,74 %
22.10.2015 03:22 9,9 C 9,4 C 8,3 C 96 % 15 lf 1014,0 hPa 0,0 l/m 0 min 0 min 0 W/m 14,6 km/h (3 Bft) 95,74 %
22.10.2015 03:24 9,9 C 9,4 C 8,9 C 96 % 15 lf 1014,0 hPa 0,0 l/m 0 min 0 min 0 W/m 14,6 km/h (3 Bft) 87,23 %
22.10.2015 03:26 9,9 C 9,4 C 8,9 C 96 % 15 lf 1014,1 hPa 0,0 l/m 0 min 0 min 0 W/m 14,6 km/h (3 Bft) 95,74 %
22.10.2015 03:28 9,9 C 9,4 C 8,9 C 97 % 15 lf 1014,0 hPa 0,0 l/m 0 min 0 min 0 W/m 16,7 km/h (3 Bft) 95,74 %
22.10.2015 03:30 9,9 C 9,4 C 8,9 C 97 % 15 lf 1014,0 hPa 0,0 l/m 0 min 0 min 0 W/m 12,6 km/h (3 Bft) 93,48 %
22.10.2015 03:32 9,9 C 9,4 C 8,3 C 97 % 15 lf 1014,0 hPa 0,0 l/m 0 min 0 min 0 W/m 16,7 km/h (3 Bft) 93,62 %
22.10.2015 03:34 9,9 C 9,4 C 8,9 C 97 % 15 lf 1014,0 hPa 0,0 l/m 0 min 0 min 0 W/m 12,6 km/h (3 Bft) 93,62 %
22.10.2015 03:36 9,9 C 9,4 C 8,9 C 97 % 15 lf 1014,0 hPa 0,0 l/m 0 min 0 min 0 W/m 14,6 km/h (3 Bft) 95,74 %
22.10.2015 03:38 9,9 C 9,4 C 8,9 C 97 % 15 lf 1014,0 hPa 0,0 l/m 0 min 0 min 0 W/m 14,6 km/h (3 Bft) 91,49 %
22.10.2015 03:40 9,9 C 9,4 C 8,9 C 97 % 15 lf 1014,0 hPa 0,2 l/m 0 min 0 min 0 W/m 10,5 km/h (2 Bft) 95,65 %
22.10.2015 03:42 9,9 C 9,4 C 8,9 C 97 % 15 lf 1014,1 hPa 0,0 l/m 0 min 0 min 0 W/m 14,6 km/h (3 Bft) 97,87 %
22.10.2015 03:44 9,9 C 9,4 C 8,9 C 97 % 15 lf 1014,0 hPa 0,0 l/m 0 min 0 min 0 W/m 12,6 km/h (3 Bft) 95,74 %
22.10.2015 03:46 9,9 C 9,4 C 8,9 C 97 % 15 lf 1014,0 hPa 0,0 l/m 0 min 0 min 0 W/m 16,7 km/h (3 Bft) 91,49 %
22.10.2015 03:48 9,9 C 10,0 C 8,9 C 97 % 15 lf 1014,0 hPa 0,0 l/m 0 min 0 min 0 W/m 18,8 km/h (3 Bft) 91,49 %
22.10.2015 03:50 9,9 C 10,0 C 8,9 C 97 % 15 lf 1014,0 hPa 0,0 l/m 0 min 0 min 0 W/m 14,6 km/h (3 Bft) 97,87 %
22.10.2015 03:52 9,9 C 10,0 C 8,9 C 97 % 15 lf 1013,9 hPa 0,0 l/m 0 min 0 min 0 W/m 14,6 km/h (3 Bft) 95,65 %
22.10.2015 03:54 9,9 C 10,0 C 8,9 C 97 % 15 lf 1013,9 hPa 0,0 l/m 0 min 0 min 0 W/m 16,7 km/h (3 Bft) 97,87 %
22.10.2015 03:56 9,9 C 10,0 C 8,9 C 97 % 15 lf 1013,9 hPa 0,0 l/m 0 min 0 min 0 W/m 14,6 km/h (3 Bft) 95,74 %
22.10.2015 03:58 9,9 C 10,0 C 8,9 C 97 % 15 lf 1013,9 hPa 0,0 l/m 0 min 0 min 0 W/m 14,6 km/h (3 Bft) 93,62 %
22.10.2015 04:00 9,9 C 10,0 C 8,9 C 97 % 15 lf 1013,8 hPa 0,0 l/m 0 min 0 min 0 W/m 10,5 km/h (2 Bft) 97,87 %
22.10.2015 04:02 9,9 C 10,0 C 8,9 C 97 % 15 lf 1013,9 hPa 0,0 l/m 0 min 0 min 0 W/m 18,8 km/h (3 Bft) 96,30 %
22.10.2015 04:07 9,9 C 10,0 C 8,9 C 97 % 15 lf 1013,7 hPa 0,0 l/m 0 min 0 min 0 W/m 23,0 km/h (4 Bft) 93,18 %
22.10.2015 04:08 9,9 C 10,0 C 8,9 C 97 % 15 lf 1013,7 hPa 0,0 l/m 0 min 0 min 0 W/m 18,8 km/h (3 Bft) 100,00 %
22.10.2015 04:10 9,9 C 10,0 C 8,9 C 97 % 15 lf 1013,8 hPa 0,0 l/m 0 min 0 min 0 W/m 12,6 km/h (3 Bft) 93,62 %
22.10.2015 04:12 9,9 C 10,0 C 8,9 C 97 % 15 lf 1013,8 hPa 0,0 l/m 0 min 0 min 0 W/m 18,8 km/h (3 Bft) 97,87 %
22.10.2015 04:14 9,9 C 10,0 C 8,9 C 97 % 15 lf 1013,7 hPa 0,0 l/m 0 min 0 min 0 W/m 16,7 km/h (3 Bft) 91,49 %
22.10.2015 04:16 9,9 C 10,0 C 8,9 C 97 % 15 lf 1013,7 hPa 0,0 l/m 0 min 0 min 0 W/m 12,6 km/h (3 Bft) 95,65 %
22.10.2015 04:18 9,9 C 10,0 C 8,9 C 97 % 15 lf 1013,7 hPa 0,0 l/m 0 min 0 min 0 W/m 14,6 km/h (3 Bft) 95,74 %
22.10.2015 04:20 9,9 C 10,0 C 8,9 C 97 % 15 lf 1013,7 hPa 0,0 l/m 0 min 0 min 0 W/m 18,8 km/h (3 Bft) 93,62 %
22.10.2015 04:22 9,9 C 10,0 C 8,9 C 97 % 15 lf 1013,6 hPa 0,0 l/m 0 min 0 min 0 W/m 10,5 km/h (2 Bft) 93,62 %
22.10.2015 04:24 9,9 C 10,0 C 8,9 C 97 % 15 lf 1013,7 hPa 0,0 l/m 0 min 0 min 0 W/m 18,8 km/h (3 Bft) 95,74 %
22.10.2015 04:26 9,9 C 10,0 C 8,9 C 97 % 15 lf 1013,6 hPa 0,0 l/m 0 min 0 min 0 W/m 16,7 km/h (3 Bft) 95,74 %
22.10.2015 04:28 9,9 C 10,0 C 8,9 C 97 % 15 lf 1013,7 hPa 0,0 l/m 0 min 0 min 0 W/m 10,5 km/h (2 Bft) 93,48 %
22.10.2015 04:30 9,9 C 10,0 C 8,9 C 97 % 15 lf 1013,7 hPa 0,0 l/m 0 min 0 min 0 W/m 14,6 km/h (3 Bft) 95,74 %
22.10.2015 04:32 9,9 C 10,0 C 8,9 C 97 % 15 lf 1013,6 hPa 0,0 l/m 0 min 0 min 0 W/m 18,8 km/h (3 Bft) 91,49 %
22.10.2015 04:34 9,9 C 10,0 C 8,9 C 97 % 15 lf 1013,6 hPa 0,0 l/m 0 min 0 min 0 W/m 14,6 km/h (3 Bft) 95,74 %
22.10.2015 04:36 9,9 C 10,0 C 8,9 C 97 % 15 lf 1013,6 hPa 0,0 l/m 0 min 0 min 0 W/m 12,6 km/h (3 Bft) 93,62 %
22.10.2015 04:38 9,9 C 10,0 C 8,9 C 97 % 15 lf 1013,7 hPa 0,0 l/m 0 min 0 min 0 W/m 16,7 km/h (3 Bft) 97,87 %
22.10.2015 04:40 9,9 C 10,0 C 8,9 C 97 % 15 lf 1013,6 hPa 0,0 l/m 0 min 0 min 0 W/m 14,6 km/h (3 Bft) 97,83 %
22.10.2015 04:42 9,9 C 10,0 C 8,9 C 97 % 15 lf 1013,6 hPa 0,0 l/m 0 min 0 min 0 W/m 16,7 km/h (3 Bft) 97,87 %
22.10.2015 04:44 9,9 C 10,0 C 8,9 C 97 % 15 lf 1013,6 hPa 0,0 l/m 0 min 0 min 0 W/m 14,6 km/h (3 Bft) 93,62 %
22.10.2015 04:46 9,9 C 10,0 C 8,9 C 97 % 15 lf 1013,7 hPa 0,0 l/m 0 min 0 min 0 W/m 14,6 km/h (3 Bft) 97,87 %
22.10.2015 04:48 9,9 C 10,0 C 8,9 C 97 % 15 lf 1013,6 hPa 0,0 l/m 0 min 0 min 0 W/m 20,9 km/h (4 Bft) 97,87 %
22.10.2015 04:50 9,9 C 10,0 C 8,9 C 97 % 15 lf 1013,6 hPa 0,0 l/m 0 min 0 min 0 W/m 12,6 km/h (3 Bft) 93,62 %
22.10.2015 04:52 9,8 C 10,0 C 8,9 C 97 % 15 lf 1013,6 hPa 0,0 l/m 0 min 0 min 0 W/m 14,6 km/h (3 Bft) 97,83 %
22.10.2015 04:54 9,9 C 10,0 C 8,9 C 97 % 15 lf 1013,5 hPa 0,0 l/m 0 min 0 min 0 W/m 12,6 km/h (3 Bft) 100,00 %
22.10.2015 04:56 9,9 C 10,0 C 8,9 C 97 % 15 lf 1013,5 hPa 0,0 l/m 0 min 0 min 0 W/m 14,6 km/h (3 Bft) 97,87 %
22.10.2015 04:58 9,9 C 10,0 C 8,9 C 97 % 15 lf 1013,4 hPa 0,0 l/m 0 min 0 min 0 W/m 12,6 km/h (3 Bft) 100,00 %
22.10.2015 05:00 9,8 C 10,0 C 8,9 C 97 % 15 lf 1013,3 hPa 0,0 l/m 0 min 0 min 0 W/m 20,9 km/h (4 Bft) 100,00 %
22.10.2015 05:02 9,9 C 10,0 C 8,9 C 97 % 15 lf 1013,3 hPa 0,0 l/m 0 min 0 min 0 W/m 14,6 km/h (3 Bft) 100,00 %
22.10.2015 05:04 9,9 C 10,0 C 8,9 C 97 % 14 lf 1013,3 hPa 0,0 l/m 0 min 0 min 0 W/m 14,6 km/h (3 Bft) 95,74 %
22.10.2015 05:06 9,9 C 10,0 C 8,9 C 97 % 14 lf 1013,3 hPa 0,0 l/m 0 min 0 min 0 W/m 14,6 km/h (3 Bft) 95,74 %
22.10.2015 05:08 9,8 C 10,0 C 8,9 C 97 % 14 lf 1013,2 hPa 0,0 l/m 0 min 0 min 0 W/m 12,6 km/h (3 Bft) 100,00 %
22.10.2015 05:10 9,8 C 10,0 C 8,9 C 97 % 14 lf 1013,3 hPa 0,0 l/m 0 min 0 min 0 W/m 12,6 km/h (3 Bft) 100,00 %
22.10.2015 05:12 9,8 C 10,0 C 8,9 C 97 % 14 lf 1013,2 hPa 0,0 l/m 0 min 0 min 0 W/m 12,6 km/h (3 Bft) 100,00 %
22.10.2015 05:14 9,8 C 10,0 C 8,9 C 97 % 14 lf 1013,3 hPa 0,0 l/m 0 min 0 min 0 W/m 12,6 km/h (3 Bft) 100,00 %
22.10.2015 05:16 9,8 C 10,0 C 8,9 C 97 % 13 lf 1013,1 hPa 0,0 l/m 0 min 0 min 0 W/m 14,6 km/h (3 Bft) 97,87 %
22.10.2015 05:18 9,8 C 10,0 C 8,9 C 97 % 13 lf 1013,1 hPa 0,0 l/m 0 min 0 min 0 W/m 18,8 km/h (3 Bft) 100,00 %
22.10.2015 05:20 9,8 C 10,0 C 8,9 C 97 % 13 lf 1013,1 hPa 0,0 l/m 0 min 0 min 0 W/m 14,6 km/h (3 Bft) 100,00 %
22.10.2015 05:22 9,8 C 10,0 C 8,9 C 97 % 12 lf 1013,1 hPa 0,0 l/m 0 min 0 min 0 W/m 16,7 km/h (3 Bft) 97,87 %
22.10.2015 05:24 9,8 C 10,0 C 8,9 C 97 % 12 lf 1013,1 hPa 0,0 l/m 0 min 0 min 0 W/m 16,7 km/h (3 Bft) 97,87 %
22.10.2015 05:26 9,8 C 10,0 C 8,9 C 97 % 11 lf 1013,1 hPa 0,0 l/m 0 min 0 min 0 W/m 12,6 km/h (3 Bft) 97,83 %
22.10.2015 05:28 9,8 C 10,0 C 8,9 C 97 % 11 lf 1013,2 hPa 0,0 l/m 0 min 0 min 0 W/m 16,7 km/h (3 Bft) 97,87 %
22.10.2015 05:30 9,8 C 10,0 C 8,9 C 97 % 10 lf 1013,3 hPa 0,0 l/m 0 min 0 min 0 W/m 18,8 km/h (3 Bft) 100,00 %
22.10.2015 05:32 9,8 C 10,0 C 8,9 C 97 % 9 lf 1013,3 hPa 0,0 l/m 0 min 0 min 0 W/m 14,6 km/h (3 Bft) 100,00 %
22.10.2015 05:34 9,8 C 10,0 C 8,9 C 97 % 7 lf 1013,3 hPa 0,0 l/m 0 min 0 min 0 W/m 18,8 km/h (3 Bft) 100,00 %
22.10.2015 05:36 9,8 C 10,0 C 8,9 C 98 % 6 lf 1013,3 hPa 0,0 l/m 0 min 0 min 0 W/m 23,0 km/h (4 Bft) 97,87 %
22.10.2015 05:38 9,8 C 10,0 C 8,9 C 98 % 5 lf 1013,3 hPa 0,0 l/m 0 min 0 min 0 W/m 14,6 km/h (3 Bft) 100,00 %
22.10.2015 05:40 9,8 C 10,0 C 8,9 C 98 % 4 lf 1013,3 hPa 0,0 l/m 0 min 0 min 0 W/m 12,6 km/h (3 Bft) 100,00 %
22.10.2015 05:42 9,8 C 10,0 C 8,9 C 98 % 4 lf 1013,3 hPa 0,0 l/m 0 min 0 min 0 W/m 18,8 km/h (3 Bft) 97,87 %
22.10.2015 05:44 9,8 C 10,0 C 8,9 C 98 % 3 lf 1013,2 hPa 0,0 l/m 0 min 0 min 0 W/m 25,1 km/h (4 Bft) 93,62 %
22.10.2015 05:46 9,8 C 10,0 C 8,9 C 98 % 3 lf 1013,2 hPa 0,0 l/m 0 min 0 min 0 W/m 23,0 km/h (4 Bft) 95,74 %
22.10.2015 05:48 9,8 C 10,0 C 8,9 C 98 % 2 lf 1013,2 hPa 0,0 l/m 0 min 0 min 0 W/m 18,8 km/h (3 Bft) 97,87 %
22.10.2015 05:50 9,8 C 10,0 C 8,9 C 98 % 2 lf 1013,2 hPa 0,0 l/m 0 min 0 min 0 W/m 16,7 km/h (3 Bft) 97,83 %
22.10.2015 05:52 9,8 C 10,0 C 8,9 C 98 % 1 lf 1013,2 hPa 0,0 l/m 0 min 0 min 0 W/m 20,9 km/h (4 Bft) 97,87 %
22.10.2015 05:54 9,9 C 10,0 C 8,9 C 98 % 1 lf 1013,2 hPa 0,0 l/m 0 min 0 min 0 W/m 18,8 km/h (3 Bft) 95,74 %
22.10.2015 05:56 9,9 C 10,0 C 8,9 C 98 % 1 lf 1013,0 hPa 0,0 l/m 0 min 0 min 0 W/m 12,6 km/h (3 Bft) 93,62 %
22.10.2015 05:58 9,8 C 10,0 C 8,9 C 98 % 1 lf 1013,0 hPa 0,0 l/m 0 min 0 min 0 W/m 14,6 km/h (3 Bft) 95,74 %
22.10.2015 06:00 9,9 C 10,0 C 8,9 C 98 % 1 lf 1013,0 hPa 0,0 l/m 0 min 0 min 0 W/m 25,1 km/h (4 Bft) 93,48 %
22.10.2015 06:02 9,9 C 10,0 C 8,9 C 98 % 1 lf 1013,0 hPa 0,0 l/m 0 min 0 min 0 W/m 18,8 km/h (3 Bft) 95,74 %
22.10.2015 06:06 9,9 C 10,0 C 8,9 C 98 % 1 lf 1012,9 hPa 0,0 l/m 0 min 0 min 0 W/m 16,7 km/h (3 Bft) 95,74 %
22.10.2015 06:08 9,9 C 10,0 C 8,9 C 98 % 1 lf 1013,0 hPa 0,0 l/m 0 min 0 min 0 W/m 23,0 km/h (4 Bft) 95,74 %
22.10.2015 06:10 9,9 C 10,0 C 8,9 C 98 % 1 lf 1013,0 hPa 0,0 l/m 0 min 0 min 0 W/m 23,0 km/h (4 Bft) 93,62 %
22.10.2015 06:12 9,9 C 10,0 C 8,9 C 98 % 1 lf 1013,0 hPa 0,0 l/m 0 min 0 min 0 W/m 20,9 km/h (4 Bft) 93,48 %
22.10.2015 06:14 9,9 C 10,0 C 8,9 C 98 % 1 lf 1013,1 hPa 0,0 l/m 0 min 0 min 0 W/m 25,1 km/h (4 Bft) 93,62 %
22.10.2015 06:16 9,9 C 10,0 C 8,9 C 98 % 1 lf 1013,1 hPa 0,0 l/m 0 min 0 min 0 W/m 20,9 km/h (4 Bft) 95,74 %
22.10.2015 06:18 9,9 C 10,0 C 8,9 C 98 % 1 lf 1013,1 hPa 0,0 l/m 0 min 0 min 0 W/m 23,0 km/h (4 Bft) 95,74 %
22.10.2015 06:20 9,9 C 10,0 C 8,9 C 98 % 1 lf 1013,1 hPa 0,0 l/m 0 min 0 min 0 W/m 23,0 km/h (4 Bft) 93,62 %
22.10.2015 06:22 9,9 C 10,0 C 8,9 C 98 % 1 lf 1013,1 hPa 0,0 l/m 0 min 0 min 0 W/m 23,0 km/h (4 Bft) 95,74 %
22.10.2015 06:24 9,9 C 10,0 C 8,9 C 98 % 1 lf 1013,2 hPa 0,0 l/m 0 min 0 min 0 W/m 23,0 km/h (4 Bft) 95,65 %
22.10.2015 06:26 9,9 C 10,0 C 8,9 C 98 % 1 lf 1013,1 hPa 0,0 l/m 0 min 0 min 0 W/m 16,7 km/h (3 Bft) 95,74 %
22.10.2015 06:28 9,9 C 10,0 C 8,9 C 98 % 1 lf 1013,1 hPa 0,0 l/m 0 min 0 min 0 W/m 16,7 km/h (3 Bft) 93,62 %
22.10.2015 06:30 9,9 C 10,0 C 8,9 C 98 % 1 lf 1013,2 hPa 0,0 l/m 0 min 0 min 0 W/m 25,1 km/h (4 Bft) 95,74 %
22.10.2015 06:32 9,9 C 10,0 C 8,9 C 98 % 1 lf 1013,1 hPa 0,0 l/m 0 min 0 min 0 W/m 18,8 km/h (3 Bft) 100,00 %
22.10.2015 06:34 9,9 C 10,0 C 8,9 C 98 % 1 lf 1013,2 hPa 0,0 l/m 0 min 0 min 0 W/m 18,8 km/h (3 Bft) 97,87 %
22.10.2015 06:36 9,9 C 10,0 C 8,9 C 98 % 1 lf 1013,3 hPa 0,0 l/m 0 min 0 min 0 W/m 18,8 km/h (3 Bft) 97,83 %
22.10.2015 06:38 9,9 C 10,0 C 8,9 C 98 % 1 lf 1013,2 hPa 0,0 l/m 0 min 0 min 0 W/m 20,9 km/h (4 Bft) 97,87 %
22.10.2015 06:40 9,9 C 10,0 C 8,9 C 98 % 1 lf 1013,1 hPa 0,0 l/m 0 min 0 min 0 W/m 18,8 km/h (3 Bft) 95,74 %
22.10.2015 06:42 9,9 C 10,0 C 8,9 C 98 % 1 lf 1013,1 hPa 0,0 l/m 0 min 0 min 0 W/m 20,9 km/h (4 Bft) 97,87 %
22.10.2015 06:44 9,9 C 10,0 C 8,9 C 98 % 1 lf 1013,0 hPa 0,0 l/m 0 min 0 min 0 W/m 23,0 km/h (4 Bft) 100,00 %
22.10.2015 06:46 9,9 C 10,0 C 8,9 C 98 % 1 lf 1013,0 hPa 0,0 l/m 0 min 0 min 0 W/m 16,7 km/h (3 Bft) 97,87 %
22.10.2015 06:48 9,9 C 10,0 C 8,9 C 98 % 1 lf 1013,1 hPa 0,0 l/m 0 min 0 min 0 W/m 23,0 km/h (4 Bft) 100,00 %
22.10.2015 06:50 9,9 C 10,0 C 8,9 C 98 % 1 lf 1013,1 hPa 0,0 l/m 0 min 0 min 0 W/m 16,7 km/h (3 Bft) 93,62 %
22.10.2015 06:52 9,9 C 10,0 C 8,9 C 98 % 1 lf 1013,0 hPa 0,0 l/m 0 min 0 min 0 W/m 16,7 km/h (3 Bft) 95,74 %
22.10.2015 06:54 10,0 C 10,0 C 8,9 C 98 % 1 lf 1013,1 hPa 0,0 l/m 0 min 0 min 0 W/m 20,9 km/h (4 Bft) 95,74 %
22.10.2015 06:56 10,0 C 10,0 C 8,9 C 98 % 1 lf 1013,1 hPa 0,0 l/m 0 min 0 min 0 W/m 23,0 km/h (4 Bft) 95,74 %
22.10.2015 06:58 10,0 C 10,6 C 8,9 C 98 % 1 lf 1013,1 hPa 0,0 l/m 0 min 0 min 0 W/m 33,5 km/h (5 Bft) 95,74 %
22.10.2015 07:00 10,0 C 10,0 C 8,9 C 98 % 1 lf 1013,1 hPa 0,0 l/m 0 min 0 min 0 W/m 18,8 km/h (3 Bft) 95,65 %
22.10.2015 07:02 10,0 C 10,0 C 8,9 C 98 % 1 lf 1013,1 hPa 0,0 l/m 0 min 0 min 0 W/m 18,8 km/h (3 Bft) 89,36 %
22.10.2015 07:04 10,0 C 10,0 C 8,9 C 98 % 1 lf 1013,1 hPa 0,0 l/m 0 min 0 min 0 W/m 18,8 km/h (3 Bft) 91,49 %
22.10.2015 07:06 10,0 C 10,0 C 8,9 C 98 % 1 lf 1013,1 hPa 0,0 l/m 0 min 0 min 0 W/m 16,7 km/h (3 Bft) 93,62 %
22.10.2015 07:08 10,0 C 10,0 C 8,9 C 98 % 1 lf 1013,1 hPa 0,0 l/m 0 min 0 min 0 W/m 20,9 km/h (4 Bft) 93,62 %
22.10.2015 07:10 10,0 C 10,6 C 8,9 C 98 % 1 lf 1013,1 hPa 0,0 l/m 0 min 0 min 0 W/m 25,1 km/h (4 Bft) 95,74 %
22.10.2015 07:12 10,0 C 10,6 C 8,9 C 98 % 1 lf 1013,2 hPa 0,0 l/m 0 min 0 min 0 W/m 23,0 km/h (4 Bft) 95,65 %
22.10.2015 07:14 10,0 C 10,6 C 8,9 C 98 % 1 lf 1013,1 hPa 0,0 l/m 0 min 0 min 0 W/m 25,1 km/h (4 Bft) 95,74 %
22.10.2015 07:16 10,0 C 10,6 C 8,9 C 98 % 1 lf 1013,1 hPa 0,0 l/m 0 min 0 min 0 W/m 16,7 km/h (3 Bft) 95,74 %
22.10.2015 07:18 10,0 C 10,6 C 8,9 C 98 % 1 lf 1013,1 hPa 0,0 l/m 0 min 0 min 0 W/m 14,6 km/h (3 Bft) 95,74 %
22.10.2015 07:20 10,0 C 10,6 C 8,9 C 98 % 1 lf 1013,1 hPa 0,0 l/m 0 min 0 min 0 W/m 14,6 km/h (3 Bft) 93,62 %
22.10.2015 07:22 10,0 C 10,6 C 8,9 C 98 % 1 lf 1013,1 hPa 0,0 l/m 0 min 0 min 0 W/m 18,8 km/h (3 Bft) 95,74 %
22.10.2015 07:24 10,0 C 10,6 C 8,9 C 98 % 1 lf 1013,1 hPa 0,0 l/m 0 min 0 min 0 W/m 14,6 km/h (3 Bft) 95,65 %
22.10.2015 07:26 10,0 C 10,6 C 8,9 C 98 % 1 lf 1013,1 hPa 0,0 l/m 0 min 0 min 0 W/m 16,7 km/h (3 Bft) 95,74 %
22.10.2015 07:28 10,0 C 10,6 C 8,9 C 98 % 1 lf 1013,1 hPa 0,0 l/m 0 min 0 min 0 W/m 14,6 km/h (3 Bft) 95,74 %
22.10.2015 07:30 10,0 C 10,6 C 8,9 C 98 % 1 lf 1013,1 hPa 0,0 l/m 0 min 0 min 0 W/m 18,8 km/h (3 Bft) 93,62 %
22.10.2015 07:32 10,0 C 10,6 C 8,9 C 98 % 1 lf 1013,0 hPa 0,0 l/m 0 min 0 min 0 W/m 18,8 km/h (3 Bft) 95,74 %
22.10.2015 07:34 10,1 C 10,6 C 8,9 C 98 % 1 lf 1013,1 hPa 0,0 l/m 0 min 0 min 0 W/m 14,6 km/h (3 Bft) 95,65 %
22.10.2015 07:36 10,1 C 10,6 C 8,9 C 98 % 1 lf 1013,1 hPa 0,0 l/m 0 min 0 min 0 W/m 20,9 km/h (4 Bft) 93,62 %
22.10.2015 07:38 10,1 C 10,6 C 8,9 C 98 % 1 lf 1013,1 hPa 0,0 l/m 0 min 0 min 0 W/m 12,6 km/h (3 Bft) 89,36 %
22.10.2015 07:40 10,1 C 10,6 C 8,9 C 98 % 1 lf 1013,0 hPa 0,0 l/m 0 min 0 min 0 W/m 14,6 km/h (3 Bft) 95,74 %
22.10.2015 07:42 10,1 C 10,6 C 8,9 C 98 % 1 lf 1013,0 hPa 0,0 l/m 0 min 0 min 0 W/m 20,9 km/h (4 Bft) 95,74 %
22.10.2015 07:44 10,1 C 10,6 C 8,9 C 98 % 1 lf 1013,0 hPa 0,0 l/m 0 min 0 min 0 W/m 14,6 km/h (3 Bft) 97,87 %
22.10.2015 07:46 10,1 C 10,6 C 8,9 C 98 % 1 lf 1013,0 hPa 0,0 l/m 0 min 0 min 0 W/m 16,7 km/h (3 Bft) 97,83 %
22.10.2015 07:48 10,1 C 10,6 C 8,9 C 98 % 1 lf 1013,0 hPa 0,0 l/m 0 min 0 min 0 W/m 16,7 km/h (3 Bft) 97,87 %
22.10.2015 07:50 10,1 C 10,6 C 8,9 C 97 % 1 lf 1013,0 hPa 0,0 l/m 0 min 0 min 0 W/m 20,9 km/h (4 Bft) 97,87 %
22.10.2015 07:52 10,1 C 10,6 C 9,4 C 97 % 1 lf 1013,0 hPa 0,0 l/m 0 min 0 min 0 W/m 18,8 km/h (3 Bft) 93,62 %
22.10.2015 07:54 10,1 C 10,6 C 9,4 C 97 % 1 lf 1013,1 hPa 0,0 l/m 0 min 0 min 0 W/m 12,6 km/h (3 Bft) 95,74 %
22.10.2015 07:56 10,1 C 10,6 C 9,4 C 97 % 1 lf 1013,0 hPa 0,0 l/m 0 min 0 min 0 W/m 12,6 km/h (3 Bft) 97,87 %
22.10.2015 07:58 10,1 C 10,6 C 9,4 C 97 % 1 lf 1013,0 hPa 0,0 l/m 0 min 0 min 0 W/m 16,7 km/h (3 Bft) 95,65 %
22.10.2015 08:00 10,1 C 10,6 C 9,4 C 97 % 1 lf 1013,0 hPa 0,0 l/m 0 min 0 min 0 W/m 18,8 km/h (3 Bft) 97,87 %
22.10.2015 08:02 10,1 C 10,6 C 9,4 C 97 % 1 lf 1013,1 hPa 0,0 l/m 0 min 0 min 0 W/m 14,6 km/h (3 Bft) 93,62 %
22.10.2015 08:04 10,1 C 10,6 C 9,4 C 97 % 1 lf 1013,0 hPa 0,0 l/m 0 min 0 min 0 W/m 14,6 km/h (3 Bft) 97,87 %
22.10.2015 08:06 10,1 C 10,6 C 9,4 C 97 % 1 lf 1013,1 hPa 0,0 l/m 0 min 0 min 0 W/m 25,1 km/h (4 Bft) 93,62 %
22.10.2015 08:08 10,1 C 10,6 C 9,4 C 97 % 1 lf 1013,1 hPa 0,0 l/m 0 min 0 min 0 W/m 20,9 km/h (4 Bft) 97,87 %
22.10.2015 08:10 10,1 C 10,6 C 9,4 C 97 % 1 lf 1013,1 hPa 0,0 l/m 0 min 0 min 0 W/m 18,8 km/h (3 Bft) 95,65 %
22.10.2015 08:12 10,1 C 10,6 C 9,4 C 97 % 1 lf 1013,1 hPa 0,0 l/m 0 min 0 min 0 W/m 16,7 km/h (3 Bft) 95,74 %
22.10.2015 08:14 10,2 C 10,6 C 9,4 C 97 % 1 lf 1013,1 hPa 0,0 l/m 0 min 0 min 0 W/m 23,0 km/h (4 Bft) 93,62 %
22.10.2015 08:16 10,2 C 10,6 C 9,4 C 97 % 1 lf 1013,1 hPa 0,0 l/m 0 min 0 min 0 W/m 16,7 km/h (3 Bft) 95,74 %
22.10.2015 08:18 10,2 C 10,6 C 9,4 C 98 % 1 lf 1013,1 hPa 0,0 l/m 0 min 0 min 0 W/m 23,0 km/h (4 Bft) 97,87 %
22.10.2015 08:20 10,2 C 10,6 C 9,4 C 98 % 1 lf 1013,1 hPa 0,0 l/m 0 min 0 min 0 W/m 23,0 km/h (4 Bft) 95,65 %
22.10.2015 08:22 10,2 C 10,6 C 9,4 C 98 % 1 lf 1013,2 hPa 0,0 l/m 0 min 0 min 0 W/m 20,9 km/h (4 Bft) 97,87 %
22.10.2015 08:24 10,2 C 10,6 C 9,4 C 98 % 1 lf 1013,2 hPa 0,0 l/m 0 min 0 min 0 W/m 20,9 km/h (4 Bft) 97,87 %
22.10.2015 08:26 10,2 C 10,6 C 9,4 C 98 % 1 lf 1013,3 hPa 0,0 l/m 0 min 0 min 0 W/m 16,7 km/h (3 Bft) 100,00 %
22.10.2015 08:28 10,2 C 10,6 C 9,4 C 98 % 1 lf 1013,3 hPa 0,0 l/m 0 min 0 min 0 W/m 16,7 km/h (3 Bft) 95,74 %
22.10.2015 08:30 10,2 C 10,6 C 9,4 C 98 % 1 lf 1013,3 hPa 0,0 l/m 0 min 0 min 1 W/m 14,6 km/h (3 Bft) 97,87 %
22.10.2015 08:32 10,2 C 10,6 C 9,4 C 98 % 1 lf 1013,3 hPa 0,0 l/m 0 min 0 min 5 W/m 20,9 km/h (4 Bft) 95,74 %
22.10.2015 08:34 10,2 C 10,6 C 9,4 C 98 % 1 lf 1013,4 hPa 0,0 l/m 0 min 0 min 7 W/m 16,7 km/h (3 Bft) 100,00 %
22.10.2015 08:36 10,2 C 10,6 C 9,4 C 98 % 1 lf 1013,3 hPa 0,0 l/m 0 min 0 min 8 W/m 25,1 km/h (4 Bft) 100,00 %
22.10.2015 08:38 10,2 C 10,6 C 9,4 C 98 % 2 lf 1013,4 hPa 0,0 l/m 0 min 0 min 7 W/m 25,1 km/h (4 Bft) 97,87 %
22.10.2015 08:40 10,2 C 10,6 C 9,4 C 97 % 2 lf 1013,2 hPa 0,0 l/m 0 min 0 min 7 W/m 16,7 km/h (3 Bft) 95,74 %
22.10.2015 08:42 10,2 C 10,6 C 9,4 C 97 % 1 lf 1013,2 hPa 0,0 l/m 0 min 0 min 7 W/m 18,8 km/h (3 Bft) 97,87 %
22.10.2015 08:44 10,2 C 10,6 C 9,4 C 97 % 2 lf 1013,3 hPa 0,0 l/m 0 min 0 min 11 W/m 20,9 km/h (4 Bft) 95,65 %
22.10.2015 08:46 10,3 C 10,6 C 9,4 C 97 % 2 lf 1013,2 hPa 0,0 l/m 0 min 0 min 12 W/m 16,7 km/h (3 Bft) 97,87 %
22.10.2015 08:48 10,3 C 10,6 C 8,9 C 97 % 2 lf 1013,2 hPa 0,0 l/m 0 min 0 min 12 W/m 20,9 km/h (4 Bft) 97,87 %
22.10.2015 08:50 10,2 C 10,6 C 8,9 C 97 % 2 lf 1013,2 hPa 0,0 l/m 0 min 0 min 15 W/m 20,9 km/h (4 Bft) 97,87 %
22.10.2015 08:52 10,3 C 10,6 C 8,9 C 97 % 1 lf 1013,3 hPa 0,0 l/m 0 min 0 min 16 W/m 23,0 km/h (4 Bft) 97,87 %
22.10.2015 08:54 10,3 C 10,6 C 8,9 C 97 % 1 lf 1013,2 hPa 0,0 l/m 0 min 0 min 19 W/m 18,8 km/h (3 Bft) 95,74 %
22.10.2015 08:56 10,3 C 10,6 C 9,4 C 97 % 1 lf 1013,2 hPa 0,0 l/m 0 min 0 min 22 W/m 12,6 km/h (3 Bft) 95,65 %
22.10.2015 08:58 10,3 C 10,6 C 9,4 C 97 % 2 lf 1013,3 hPa 0,0 l/m 0 min 0 min 25 W/m 14,6 km/h (3 Bft) 97,87 %
22.10.2015 09:00 10,3 C 10,6 C 9,4 C 97 % 2 lf 1013,2 hPa 0,0 l/m 0 min 0 min 25 W/m 12,6 km/h (3 Bft) 97,87 %
22.10.2015 09:02 10,3 C 10,6 C 9,4 C 97 % 1 lf 1013,2 hPa 0,0 l/m 0 min 0 min 24 W/m 14,6 km/h (3 Bft) 93,62 %
22.10.2015 09:04 10,3 C 10,6 C 9,4 C 97 % 1 lf 1013,1 hPa 0,0 l/m 0 min 0 min 25 W/m 8,4 km/h (2 Bft) 97,87 %
22.10.2015 09:06 10,3 C 10,6 C 9,4 C 97 % 1 lf 1013,2 hPa 0,0 l/m 0 min 0 min 25 W/m 23,0 km/h (4 Bft) 97,87 %
22.10.2015 09:08 10,3 C 10,6 C 9,4 C 97 % 1 lf 1013,2 hPa 0,0 l/m 0 min 0 min 25 W/m 18,8 km/h (3 Bft) 95,65 %
22.10.2015 09:10 10,3 C 10,6 C 9,4 C 97 % 1 lf 1013,3 hPa 0,0 l/m 0 min 0 min 26 W/m 18,8 km/h (3 Bft) 95,74 %
22.10.2015 09:12 10,3 C 10,6 C 9,4 C 97 % 1 lf 1013,3 hPa 0,0 l/m 0 min 0 min 30 W/m 18,8 km/h (3 Bft) 95,74 %
22.10.2015 09:14 10,3 C 10,6 C 9,4 C 97 % 1 lf 1013,2 hPa 0,0 l/m 0 min 0 min 30 W/m 16,7 km/h (3 Bft) 97,87 %
22.10.2015 09:16 10,3 C 10,6 C 9,4 C 97 % 1 lf 1013,3 hPa 0,0 l/m 0 min 0 min 34 W/m 14,6 km/h (3 Bft) 97,87 %
22.10.2015 09:18 10,4 C 10,6 C 9,4 C 97 % 1 lf 1013,3 hPa 0,0 l/m 0 min 0 min 36 W/m 16,7 km/h (3 Bft) 95,74 %
22.10.2015 09:20 10,3 C 10,6 C 9,4 C 97 % 1 lf 1013,4 hPa 0,0 l/m 0 min 0 min 32 W/m 14,6 km/h (3 Bft) 95,65 %
22.10.2015 09:22 10,4 C 10,6 C 9,4 C 97 % 1 lf 1013,4 hPa 0,0 l/m 0 min 0 min 32 W/m 16,7 km/h (3 Bft) 95,74 %
22.10.2015 09:24 10,4 C 10,6 C 9,4 C 97 % 1 lf 1013,4 hPa 0,0 l/m 0 min 0 min 31 W/m 16,7 km/h (3 Bft) 95,74 %
22.10.2015 09:26 10,4 C 10,6 C 9,4 C 97 % 1 lf 1013,4 hPa 0,0 l/m 0 min 0 min 36 W/m 16,7 km/h (3 Bft) 100,00 %
22.10.2015 09:28 10,4 C 10,6 C 9,4 C 97 % 3 lf 1013,4 hPa 0,0 l/m 0 min 0 min 38 W/m 20,9 km/h (4 Bft) 95,74 %
22.10.2015 09:30 10,4 C 10,6 C 9,4 C 97 % 3 lf 1013,4 hPa 0,0 l/m 0 min 0 min 38 W/m 14,6 km/h (3 Bft) 97,87 %
22.10.2015 09:32 10,4 C 10,6 C 9,4 C 97 % 3 lf 1013,3 hPa 0,0 l/m 0 min 0 min 42 W/m 16,7 km/h (3 Bft) 97,83 %
22.10.2015 09:34 10,4 C 10,6 C 9,4 C 97 % 3 lf 1013,3 hPa 0,0 l/m 0 min 0 min 49 W/m 12,6 km/h (3 Bft) 100,00 %
22.10.2015 09:36 10,4 C 10,6 C 9,4 C 97 % 3 lf 1013,4 hPa 0,0 l/m 0 min 0 min 54 W/m 14,6 km/h (3 Bft) 91,49 %
22.10.2015 09:38 10,4 C 10,6 C 9,4 C 97 % 2 lf 1013,4 hPa 0,0 l/m 0 min 0 min 49 W/m 16,7 km/h (3 Bft) 93,62 %
22.10.2015 09:40 10,4 C 11,1 C 9,4 C 97 % 2 lf 1013,5 hPa 0,0 l/m 0 min 0 min 45 W/m 10,5 km/h (2 Bft) 100,00 %
22.10.2015 09:42 10,5 C 11,1 C 9,4 C 98 % 1 lf 1013,4 hPa 0,0 l/m 0 min 0 min 52 W/m 14,6 km/h (3 Bft) 100,00 %
22.10.2015 09:44 10,5 C 11,1 C 9,4 C 98 % 1 lf 1013,5 hPa 0,0 l/m 0 min 0 min 59 W/m 20,9 km/h (4 Bft) 93,48 %
22.10.2015 09:46 10,5 C 11,1 C 9,4 C 98 % 1 lf 1013,4 hPa 0,0 l/m 0 min 0 min 60 W/m 14,6 km/h (3 Bft) 93,62 %
22.10.2015 09:48 10,5 C 11,1 C 10,0 C 98 % 1 lf 1013,4 hPa 0,0 l/m 0 min 0 min 55 W/m 12,6 km/h (3 Bft) 93,62 %
22.10.2015 09:50 10,6 C 11,1 C 10,0 C 98 % 0 lf 1013,5 hPa 0,0 l/m 0 min 0 min 54 W/m 14,6 km/h (3 Bft) 95,74 %
22.10.2015 09:52 10,6 C 11,1 C 10,0 C 98 % 0 lf 1013,4 hPa 0,0 l/m 0 min 0 min 55 W/m 14,6 km/h (3 Bft) 95,74 %
22.10.2015 09:54 10,6 C 11,1 C 10,0 C 98 % 0 lf 1013,5 hPa 0,0 l/m 0 min 0 min 57 W/m 18,8 km/h (3 Bft) 93,48 %
22.10.2015 09:56 10,6 C 11,1 C 10,0 C 98 % 0 lf 1013,5 hPa 0,0 l/m 0 min 0 min 56 W/m 10,5 km/h (2 Bft) 95,74 %
22.10.2015 09:58 10,6 C 11,7 C 10,0 C 98 % 0 lf 1013,5 hPa 0,0 l/m 0 min 0 min 60 W/m 16,7 km/h (3 Bft) 95,74 %
22.10.2015 10:00 10,6 C 11,7 C 10,0 C 98 % 0 lf 1013,6 hPa 0,0 l/m 0 min 0 min 69 W/m 18,8 km/h (3 Bft) 97,87 %
22.10.2015 10:02 10,7 C 11,7 C 10,0 C 98 % 0 lf 1013,6 hPa 0,0 l/m 0 min 0 min 70 W/m 18,8 km/h (3 Bft) 95,74 %
22.10.2015 10:04 10,7 C 11,7 C 10,0 C 97 % 0 lf 1013,6 hPa 0,0 l/m 0 min 0 min 64 W/m 20,9 km/h (4 Bft) 93,62 %
22.10.2015 10:06 10,7 C 11,7 C 10,0 C 97 % 3 lf 1013,5 hPa 0,0 l/m 0 min 0 min 61 W/m 23,0 km/h (4 Bft) 95,65 %
22.10.2015 10:08 10,7 C 11,1 C 10,0 C 97 % 6 lf 1013,6 hPa 0,0 l/m 0 min 0 min 60 W/m 23,0 km/h (4 Bft) 93,62 %
22.10.2015 10:10 10,7 C 11,1 C 10,0 C 97 % 10 lf 1013,6 hPa 0,0 l/m 0 min 0 min 62 W/m 16,7 km/h (3 Bft) 95,74 %
22.10.2015 10:12 10,7 C 11,1 C 10,0 C 97 % 15 lf 1013,6 hPa 0,0 l/m 0 min 0 min 67 W/m 12,6 km/h (3 Bft) 95,74 %
22.10.2015 10:14 10,7 C 11,1 C 10,0 C 97 % 15 lf 1013,6 hPa 0,0 l/m 0 min 0 min 66 W/m 18,8 km/h (3 Bft) 95,74 %
22.10.2015 10:16 10,8 C 11,1 C 9,4 C 97 % 15 lf 1013,7 hPa 0,0 l/m 0 min 0 min 66 W/m 14,6 km/h (3 Bft) 95,74 %
22.10.2015 10:18 10,8 C 11,1 C 10,0 C 97 % 15 lf 1013,6 hPa 0,0 l/m 0 min 0 min 65 W/m 16,7 km/h (3 Bft) 93,48 %
22.10.2015 10:20 10,8 C 11,1 C 10,0 C 97 % 15 lf 1013,7 hPa 0,0 l/m 0 min 0 min 64 W/m 18,8 km/h (3 Bft) 95,74 %
22.10.2015 10:22 10,8 C 11,1 C 9,4 C 97 % 15 lf 1013,7 hPa 0,0 l/m 0 min 0 min 64 W/m 16,7 km/h (3 Bft) 97,87 %
22.10.2015 10:24 10,8 C 11,1 C 9,4 C 97 % 15 lf 1013,7 hPa 0,0 l/m 0 min 0 min 59 W/m 18,8 km/h (3 Bft) 95,74 %
22.10.2015 10:26 10,8 C 11,1 C 9,4 C 97 % 15 lf 1013,8 hPa 0,0 l/m 0 min 0 min 60 W/m 23,0 km/h (4 Bft) 97,87 %
22.10.2015 10:28 10,8 C 11,1 C 9,4 C 98 % 15 lf 1013,7 hPa 0,0 l/m 0 min 0 min 61 W/m 14,6 km/h (3 Bft) 93,62 %
22.10.2015 10:30 10,8 C 10,6 C 9,4 C 98 % 15 lf 1013,7 hPa 0,0 l/m 0 min 2 min 65 W/m 18,8 km/h (3 Bft) 97,83 %
22.10.2015 10:32 10,8 C 11,1 C 9,4 C 98 % 15 lf 1013,7 hPa 0,0 l/m 0 min 2 min 69 W/m 16,7 km/h (3 Bft) 100,00 %
22.10.2015 10:34 10,8 C 11,1 C 9,4 C 98 % 15 lf 1013,7 hPa 0,0 l/m 0 min 2 min 70 W/m 18,8 km/h (3 Bft) 95,74 %
22.10.2015 10:36 10,8 C 11,1 C 10,0 C 98 % 15 lf 1013,8 hPa 0,0 l/m 0 min 2 min 69 W/m 23,0 km/h (4 Bft) 100,00 %
22.10.2015 10:38 10,9 C 11,1 C 9,4 C 98 % 15 lf 1013,7 hPa 0,0 l/m 0 min 2 min 72 W/m 20,9 km/h (4 Bft) 100,00 %
22.10.2015 10:40 10,9 C 11,1 C 10,0 C 98 % 15 lf 1013,8 hPa 0,0 l/m 0 min 2 min 70 W/m 20,9 km/h (4 Bft) 100,00 %
22.10.2015 10:42 10,9 C 11,1 C 10,0 C 98 % 15 lf 1013,8 hPa 0,0 l/m 0 min 0 min 85 W/m 18,8 km/h (3 Bft) 97,83 %
22.10.2015 10:44 10,9 C 11,1 C 10,0 C 98 % 15 lf 1013,9 hPa 0,0 l/m 0 min 2 min 92 W/m 14,6 km/h (3 Bft) 95,74 %
22.10.2015 10:46 10,9 C 11,1 C 10,0 C 98 % 15 lf 1013,8 hPa 0,0 l/m 0 min 0 min 87 W/m 23,0 km/h (4 Bft) 95,74 %
22.10.2015 10:48 10,9 C 11,1 C 10,0 C 98 % 15 lf 1013,8 hPa 0,0 l/m 0 min 0 min 90 W/m 14,6 km/h (3 Bft) 97,87 %
22.10.2015 10:50 10,9 C 11,1 C 10,0 C 98 % 15 lf 1013,8 hPa 0,0 l/m 0 min 0 min 97 W/m 20,9 km/h (4 Bft) 95,74 %
22.10.2015 10:52 10,9 C 11,1 C 10,0 C 98 % 15 lf 1013,8 hPa 0,0 l/m 0 min 0 min 92 W/m 16,7 km/h (3 Bft) 93,62 %
22.10.2015 10:54 10,9 C 11,1 C 10,0 C 98 % 15 lf 1013,8 hPa 0,0 l/m 0 min 0 min 93 W/m 16,7 km/h (3 Bft) 97,83 %
22.10.2015 10:56 11,0 C 11,1 C 10,0 C 98 % 15 lf 1013,9 hPa 0,0 l/m 0 min 0 min 90 W/m 16,7 km/h (3 Bft) 97,87 %
22.10.2015 10:58 11,0 C 11,7 C 10,0 C 98 % 15 lf 1013,8 hPa 0,0 l/m 0 min 0 min 85 W/m 16,7 km/h (3 Bft) 95,74 %
22.10.2015 11:00 11,1 C 11,7 C 10,0 C 98 % 15 lf 1013,8 hPa 0,0 l/m 0 min 0 min 96 W/m 16,7 km/h (3 Bft) 95,74 %
22.10.2015 11:02 11,1 C 11,7 C 10,0 C 98 % 15 lf 1013,8 hPa 0,0 l/m 0 min 0 min 98 W/m 23,0 km/h (4 Bft) 93,62 %
22.10.2015 11:04 11,1 C 11,7 C 10,0 C 98 % 15 lf 1013,8 hPa 0,0 l/m 0 min 0 min 95 W/m 18,8 km/h (3 Bft) 95,74 %
22.10.2015 11:06 11,1 C 11,7 C 10,0 C 98 % 15 lf 1013,8 hPa 0,0 l/m 0 min 0 min 81 W/m 16,7 km/h (3 Bft) 100,00 %
22.10.2015 11:08 11,1 C 11,7 C 10,0 C 98 % 15 lf 1013,8 hPa 0,0 l/m 0 min 0 min 82 W/m 14,6 km/h (3 Bft) 97,87 %
22.10.2015 11:10 11,1 C 11,7 C 10,0 C 98 % 15 lf 1013,8 hPa 0,0 l/m 0 min 0 min 94 W/m 12,6 km/h (3 Bft) 93,62 %
22.10.2015 11:12 11,2 C 11,7 C 10,0 C 98 % 15 lf 1013,8 hPa 0,0 l/m 0 min 0 min 109 W/m 23,0 km/h (4 Bft) 97,87 %
22.10.2015 11:14 11,2 C 11,7 C 10,6 C 98 % 15 lf 1013,9 hPa 0,0 l/m 0 min 0 min 111 W/m 12,6 km/h (3 Bft) 97,87 %
22.10.2015 11:16 11,2 C 11,7 C 10,6 C 98 % 15 lf 1013,9 hPa 0,0 l/m 0 min 0 min 115 W/m 12,6 km/h (3 Bft) 95,65 %
22.10.2015 11:18 11,2 C 11,7 C 10,6 C 98 % 15 lf 1013,9 hPa 0,0 l/m 0 min 0 min 120 W/m 14,6 km/h (3 Bft) 95,74 %
22.10.2015 11:20 11,3 C 11,7 C 10,6 C 98 % 15 lf 1013,9 hPa 0,0 l/m 0 min 0 min 105 W/m 18,8 km/h (3 Bft) 95,74 %
22.10.2015 11:22 11,3 C 12,2 C 10,6 C 98 % 15 lf 1013,9 hPa 0,0 l/m 0 min 0 min 91 W/m 16,7 km/h (3 Bft) 97,87 %
22.10.2015 11:24 11,3 C 12,2 C 10,6 C 98 % 15 lf 1013,8 hPa 0,0 l/m 0 min 0 min 91 W/m 14,6 km/h (3 Bft) 97,87 %
22.10.2015 11:26 11,4 C 12,2 C 10,6 C 98 % 15 lf 1013,8 hPa 0,0 l/m 0 min 0 min 100 W/m 12,6 km/h (3 Bft) 93,62 %
22.10.2015 11:28 11,4 C 12,2 C 10,6 C 98 % 15 lf 1013,9 hPa 0,0 l/m 0 min 0 min 96 W/m 16,7 km/h (3 Bft) 93,62 %
22.10.2015 11:30 11,4 C 12,2 C 10,6 C 98 % 15 lf 1013,9 hPa 0,0 l/m 0 min 0 min 96 W/m 14,6 km/h (3 Bft) 93,48 %
22.10.2015 11:32 11,4 C 12,2 C 10,6 C 98 % 13 lf 1013,9 hPa 0,0 l/m 0 min 0 min 96 W/m 16,7 km/h (3 Bft) 97,87 %
22.10.2015 11:34 11,4 C 12,2 C 10,6 C 98 % 12 lf 1014,0 hPa 0,0 l/m 0 min 0 min 105 W/m 16,7 km/h (3 Bft) 95,74 %
22.10.2015 11:36 11,5 C 12,2 C 10,6 C 98 % 11 lf 1013,9 hPa 0,0 l/m 0 min 0 min 106 W/m 10,5 km/h (2 Bft) 93,62 %
22.10.2015 11:38 11,5 C 12,2 C 10,6 C 98 % 9 lf 1013,9 hPa 0,0 l/m 0 min 0 min 98 W/m 14,6 km/h (3 Bft) 95,74 %
22.10.2015 11:40 11,5 C 12,2 C 10,6 C 98 % 4 lf 1013,9 hPa 0,0 l/m 0 min 0 min 100 W/m 18,8 km/h (3 Bft) 95,65 %
22.10.2015 11:42 11,6 C 12,2 C 10,6 C 98 % 3 lf 1013,9 hPa 0,0 l/m 0 min 0 min 107 W/m 20,9 km/h (4 Bft) 93,62 %
22.10.2015 11:44 11,6 C 12,2 C 10,6 C 98 % 1 lf 1013,9 hPa 0,0 l/m 0 min 0 min 119 W/m 18,8 km/h (3 Bft) 91,49 %
22.10.2015 11:46 11,6 C 12,8 C 11,1 C 98 % 0 lf 1014,0 hPa 0,0 l/m 0 min 0 min 124 W/m 16,7 km/h (3 Bft) 91,49 %
22.10.2015 11:48 11,6 C 12,8 C 11,1 C 98 % 0 lf 1014,0 hPa 0,0 l/m 0 min 0 min 125 W/m 14,6 km/h (3 Bft) 93,62 %
22.10.2015 11:50 11,7 C 12,8 C 11,1 C 98 % 0 lf 1013,9 hPa 0,0 l/m 0 min 0 min 121 W/m 23,0 km/h (4 Bft) 91,49 %
22.10.2015 11:52 11,7 C 12,8 C 11,1 C 98 % 0 lf 1013,9 hPa 0,0 l/m 0 min 0 min 141 W/m 20,9 km/h (4 Bft) 93,48 %
22.10.2015 11:54 11,7 C 12,8 C 11,1 C 98 % 1 lf 1013,9 hPa 0,0 l/m 0 min 0 min 145 W/m 14,6 km/h (3 Bft) 95,74 %
22.10.2015 11:56 11,7 C 12,8 C 11,1 C 98 % 0 lf 1013,8 hPa 0,0 l/m 0 min 0 min 125 W/m 14,6 km/h (3 Bft) 91,49 %
22.10.2015 11:58 11,8 C 12,8 C 11,1 C 98 % 0 lf 1013,9 hPa 0,0 l/m 0 min 0 min 124 W/m 23,0 km/h (4 Bft) 93,62 %
22.10.2015 12:00 11,8 C 13,3 C 11,1 C 98 % 0 lf 1013,7 hPa 0,0 l/m 0 min 0 min 166 W/m 20,9 km/h (4 Bft) 95,74 %
22.10.2015 12:02 11,8 C 13,3 C 11,1 C 98 % 0 lf 1013,7 hPa 0,0 l/m 0 min 0 min 146 W/m 14,6 km/h (3 Bft) 95,74 %
22.10.2015 12:06 11,9 C 13,3 C 11,7 C 98 % 0 lf 1013,8 hPa 0,0 l/m 0 min 0 min 155 W/m 16,7 km/h (3 Bft) 93,55 %
22.10.2015 12:08 11,9 C 13,9 C 11,7 C 98 % 0 lf 1013,7 hPa 0,0 l/m 0 min 0 min 214 W/m 18,8 km/h (3 Bft) 93,62 %
22.10.2015 12:10 12,0 C 14,4 C 11,7 C 98 % 0 lf 1013,7 hPa 0,0 l/m 2 min 0 min 252 W/m 16,7 km/h (3 Bft) 91,49 %
22.10.2015 12:12 12,1 C 14,4 C 12,2 C 98 % 0 lf 1013,7 hPa 0,0 l/m 2 min 0 min 247 W/m 20,9 km/h (4 Bft) 93,62 %
22.10.2015 12:14 12,1 C 14,4 C 12,2 C 98 % 0 lf 1013,7 hPa 0,0 l/m 0 min 0 min 185 W/m 20,9 km/h (4 Bft) 95,65 %
22.10.2015 12:16 12,2 C 14,4 C 12,2 C 98 % 0 lf 1013,7 hPa 0,0 l/m 0 min 0 min 172 W/m 20,9 km/h (4 Bft) 97,87 %
22.10.2015 12:18 12,2 C 13,9 C 11,7 C 98 % 0 lf 1013,6 hPa 0,0 l/m 0 min 0 min 139 W/m 29,3 km/h (5 Bft) 97,87 %
22.10.2015 12:20 12,2 C 13,3 C 11,7 C 98 % 0 lf 1013,7 hPa 0,0 l/m 0 min 0 min 166 W/m 18,8 km/h (3 Bft) 93,62 %
22.10.2015 12:22 12,2 C 13,3 C 11,7 C 98 % 0 lf 1013,8 hPa 0,0 l/m 0 min 0 min 166 W/m 25,1 km/h (4 Bft) 97,87 %
22.10.2015 12:24 12,2 C 13,9 C 11,7 C 98 % 0 lf 1013,8 hPa 0,0 l/m 0 min 0 min 170 W/m 20,9 km/h (4 Bft) 97,87 %
22.10.2015 12:26 12,2 C 13,9 C 11,7 C 98 % 0 lf 1013,8 hPa 0,0 l/m 0 min 0 min 204 W/m 20,9 km/h (4 Bft) 95,65 %
22.10.2015 12:28 12,3 C 13,9 C 12,2 C 98 % 0 lf 1013,9 hPa 0,0 l/m 0 min 0 min 196 W/m 25,1 km/h (4 Bft) 100,00 %
22.10.2015 12:30 12,3 C 13,9 C 12,2 C 98 % 0 lf 1013,9 hPa 0,0 l/m 0 min 0 min 149 W/m 20,9 km/h (4 Bft) 100,00 %
22.10.2015 12:32 12,3 C 13,9 C 12,2 C 98 % 0 lf 1013,9 hPa 0,0 l/m 0 min 0 min 131 W/m 18,8 km/h (3 Bft) 97,87 %
22.10.2015 12:34 12,3 C 13,9 C 11,7 C 98 % 0 lf 1014,1 hPa 0,0 l/m 0 min 0 min 146 W/m 31,4 km/h (5 Bft) 97,87 %
22.10.2015 12:36 12,4 C 13,9 C 11,7 C 98 % 0 lf 1014,0 hPa 0,0 l/m 0 min 0 min 148 W/m 18,8 km/h (3 Bft) 97,87 %
22.10.2015 12:38 12,4 C 13,9 C 12,2 C 98 % 0 lf 1014,0 hPa 0,0 l/m 0 min 0 min 132 W/m 16,7 km/h (3 Bft) 100,00 %
22.10.2015 12:40 12,4 C 13,9 C 11,7 C 98 % 0 lf 1014,0 hPa 0,0 l/m 0 min 0 min 118 W/m 16,7 km/h (3 Bft) 91,49 %
22.10.2015 12:42 12,4 C 13,9 C 12,2 C 98 % 0 lf 1014,0 hPa 0,0 l/m 0 min 0 min 146 W/m 14,6 km/h (3 Bft) 97,87 %
22.10.2015 12:44 12,5 C 13,9 C 12,2 C 97 % 0 lf 1014,0 hPa 0,0 l/m 0 min 0 min 162 W/m 29,3 km/h (5 Bft) 95,74 %
22.10.2015 12:46 12,5 C 13,9 C 12,2 C 97 % 0 lf 1014,0 hPa 0,0 l/m 0 min 0 min 160 W/m 16,7 km/h (3 Bft) 93,62 %
22.10.2015 12:48 12,6 C 13,9 C 12,2 C 97 % 0 lf 1014,0 hPa 0,0 l/m 0 min 0 min 171 W/m 25,1 km/h (4 Bft) 97,87 %
22.10.2015 12:50 12,6 C 13,9 C 12,2 C 97 % 0 lf 1014,0 hPa 0,0 l/m 0 min 0 min 187 W/m 18,8 km/h (3 Bft) 97,83 %
22.10.2015 12:52 12,6 C 14,4 C 12,2 C 97 % 0 lf 1014,0 hPa 0,0 l/m 0 min 0 min 190 W/m 25,1 km/h (4 Bft) 97,87 %
22.10.2015 12:54 12,7 C 14,4 C 12,8 C 97 % 0 lf 1014,0 hPa 0,0 l/m 0 min 0 min 182 W/m 14,6 km/h (3 Bft) 97,87 %
22.10.2015 12:56 12,7 C 14,4 C 12,2 C 97 % 0 lf 1013,9 hPa 0,0 l/m 0 min 0 min 143 W/m 18,8 km/h (3 Bft) 97,87 %
22.10.2015 12:58 12,8 C 14,4 C 12,2 C 97 % 0 lf 1013,9 hPa 0,0 l/m 0 min 0 min 148 W/m 20,9 km/h (4 Bft) 95,74 %
22.10.2015 13:00 12,8 C 14,4 C 12,8 C 97 % 0 lf 1013,9 hPa 0,0 l/m 0 min 0 min 211 W/m 27,2 km/h (4 Bft) 91,49 %
22.10.2015 13:02 12,8 C 15,0 C 12,8 C 97 % 0 lf 1013,8 hPa 0,0 l/m 2 min 0 min 259 W/m 18,8 km/h (3 Bft) 95,74 %
22.10.2015 13:04 12,9 C 15,6 C 13,3 C 97 % 0 lf 1013,8 hPa 0,0 l/m 2 min 0 min 274 W/m 16,7 km/h (3 Bft) 95,65 %
22.10.2015 13:06 12,9 C 15,6 C 12,8 C 97 % 0 lf 1013,9 hPa 0,0 l/m 2 min 0 min 241 W/m 25,1 km/h (4 Bft) 97,87 %
22.10.2015 13:08 13,0 C 15,6 C 12,8 C 97 % 0 lf 1013,8 hPa 0,0 l/m 0 min 0 min 200 W/m 14,6 km/h (3 Bft) 93,62 %
22.10.2015 13:10 13,1 C 15,0 C 12,8 C 97 % 0 lf 1013,9 hPa 0,0 l/m 0 min 0 min 156 W/m 12,6 km/h (3 Bft) 93,62 %
22.10.2015 13:12 13,1 C 15,0 C 12,8 C 97 % 0 lf 1013,8 hPa 0,0 l/m 0 min 0 min 137 W/m 20,9 km/h (4 Bft) 97,87 %
22.10.2015 13:14 13,2 C 14,4 C 12,8 C 97 % 0 lf 1013,8 hPa 0,0 l/m 0 min 0 min 129 W/m 29,3 km/h (5 Bft) 95,65 %
22.10.2015 13:16 13,2 C 14,4 C 12,8 C 97 % 0 lf 1013,7 hPa 0,0 l/m 0 min 0 min 123 W/m 25,1 km/h (4 Bft) 93,62 %
22.10.2015 13:18 13,2 C 14,4 C 12,2 C 97 % 0 lf 1013,7 hPa 0,0 l/m 0 min 0 min 115 W/m 29,3 km/h (5 Bft) 97,87 %
22.10.2015 13:20 13,2 C 13,9 C 12,2 C 97 % 0 lf 1013,7 hPa 0,0 l/m 0 min 0 min 121 W/m 23,0 km/h (4 Bft) 97,87 %
22.10.2015 13:22 13,2 C 14,4 C 12,2 C 96 % 0 lf 1013,7 hPa 0,0 l/m 0 min 0 min 116 W/m 20,9 km/h (4 Bft) 97,87 %
22.10.2015 13:24 13,2 C 14,4 C 12,8 C 96 % 0 lf 1013,9 hPa 0,0 l/m 0 min 0 min 145 W/m 12,6 km/h (3 Bft) 95,74 %
22.10.2015 13:26 13,2 C 14,4 C 12,8 C 96 % 0 lf 1013,7 hPa 0,0 l/m 0 min 0 min 156 W/m 18,8 km/h (3 Bft) 97,83 %
22.10.2015 13:28 13,3 C 14,4 C 12,8 C 96 % 0 lf 1013,9 hPa 0,0 l/m 0 min 0 min 131 W/m 20,9 km/h (4 Bft) 97,87 %
22.10.2015 13:30 13,3 C 14,4 C 12,8 C 96 % 0 lf 1013,9 hPa 0,0 l/m 0 min 0 min 112 W/m 14,6 km/h (3 Bft) 97,87 %
22.10.2015 13:32 13,3 C 14,4 C 12,8 C 96 % 0 lf 1013,8 hPa 0,0 l/m 0 min 0 min 108 W/m 25,1 km/h (4 Bft) 97,87 %
22.10.2015 13:34 13,3 C 14,4 C 12,8 C 96 % 0 lf 1013,9 hPa 0,0 l/m 0 min 0 min 109 W/m 14,6 km/h (3 Bft) 100,00 %
22.10.2015 13:36 13,3 C 14,4 C 12,8 C 95 % 0 lf 1013,9 hPa 0,0 l/m 0 min 0 min 118 W/m 27,2 km/h (4 Bft) 95,65 %
22.10.2015 13:38 13,3 C 14,4 C 12,8 C 95 % 0 lf 1013,9 hPa 0,0 l/m 0 min 0 min 112 W/m 16,7 km/h (3 Bft) 97,87 %
22.10.2015 13:40 13,3 C 14,4 C 12,8 C 95 % 0 lf 1013,9 hPa 0,0 l/m 0 min 0 min 94 W/m 20,9 km/h (4 Bft) 97,87 %
22.10.2015 13:42 13,3 C 14,4 C 12,8 C 95 % 0 lf 1013,9 hPa 0,0 l/m 0 min 0 min 97 W/m 14,6 km/h (3 Bft) 100,00 %
22.10.2015 13:44 13,4 C 14,4 C 12,8 C 95 % 0 lf 1013,9 hPa 0,0 l/m 0 min 0 min 87 W/m 12,6 km/h (3 Bft) 97,87 %
22.10.2015 13:46 13,4 C 14,4 C 12,8 C 95 % 0 lf 1013,9 hPa 0,0 l/m 0 min 0 min 92 W/m 16,7 km/h (3 Bft) 97,87 %
22.10.2015 13:48 13,4 C 13,9 C 12,8 C 95 % 0 lf 1013,9 hPa 0,0 l/m 0 min 0 min 104 W/m 14,6 km/h (3 Bft) 97,83 %
22.10.2015 13:50 13,4 C 14,4 C 12,8 C 95 % 0 lf 1013,8 hPa 0,0 l/m 0 min 0 min 115 W/m 16,7 km/h (3 Bft) 95,74 %
22.10.2015 13:52 13,4 C 14,4 C 12,8 C 95 % 0 lf 1013,7 hPa 0,0 l/m 0 min 0 min 133 W/m 14,6 km/h (3 Bft) 97,87 %
22.10.2015 13:54 13,4 C 14,4 C 12,8 C 95 % 0 lf 1013,6 hPa 0,0 l/m 0 min 0 min 151 W/m 18,8 km/h (3 Bft) 97,87 %
22.10.2015 13:56 13,4 C 14,4 C 12,8 C 95 % 0 lf 1013,7 hPa 0,0 l/m 0 min 0 min 127 W/m 18,8 km/h (3 Bft) 97,87 %
22.10.2015 13:58 13,4 C 14,4 C 12,8 C 95 % 0 lf 1013,7 hPa 0,0 l/m 0 min 0 min 106 W/m 20,9 km/h (4 Bft) 95,74 %
22.10.2015 14:00 13,4 C 14,4 C 12,8 C 95 % 0 lf 1013,7 hPa 0,0 l/m 0 min 0 min 111 W/m 20,9 km/h (4 Bft) 95,65 %
22.10.2015 14:02 13,4 C 13,9 C 12,8 C 95 % 0 lf 1013,7 hPa 0,0 l/m 0 min 0 min 104 W/m 20,9 km/h (4 Bft) 97,87 %
22.10.2015 14:04 13,5 C 13,9 C 12,8 C 95 % 0 lf 1013,7 hPa 0,0 l/m 0 min 0 min 107 W/m 14,6 km/h (3 Bft) 95,74 %
22.10.2015 14:06 13,5 C 13,9 C 12,2 C 95 % 0 lf 1013,9 hPa 0,0 l/m 0 min 0 min 89 W/m 20,9 km/h (4 Bft) 95,74 %
22.10.2015 14:08 13,5 C 13,9 C 12,2 C 95 % 0 lf 1013,9 hPa 0,0 l/m 0 min 0 min 76 W/m 16,7 km/h (3 Bft) 97,87 %
22.10.2015 14:10 13,5 C 13,9 C 12,2 C 95 % 0 lf 1013,9 hPa 0,0 l/m 0 min 0 min 71 W/m 18,8 km/h (3 Bft) 97,87 %
22.10.2015 14:12 13,4 C 13,3 C 12,2 C 95 % 0 lf 1014,0 hPa 0,0 l/m 0 min 0 min 68 W/m 14,6 km/h (3 Bft) 97,83 %
22.10.2015 14:14 13,4 C 13,9 C 12,2 C 95 % 0 lf 1014,0 hPa 0,0 l/m 0 min 0 min 66 W/m 10,5 km/h (2 Bft) 95,74 %
22.10.2015 14:16 13,4 C 13,3 C 12,2 C 95 % 0 lf 1014,0 hPa 0,0 l/m 0 min 0 min 72 W/m 20,9 km/h (4 Bft) 100,00 %
22.10.2015 14:18 13,4 C 13,3 C 12,2 C 95 % 0 lf 1013,9 hPa 0,0 l/m 0 min 0 min 75 W/m 18,8 km/h (3 Bft) 95,74 %
22.10.2015 14:20 13,4 C 13,3 C 12,2 C 95 % 0 lf 1013,9 hPa 0,0 l/m 0 min 0 min 76 W/m 25,1 km/h (4 Bft) 100,00 %
22.10.2015 14:22 13,4 C 13,3 C 12,2 C 95 % 0 lf 1013,9 hPa 0,0 l/m 0 min 0 min 74 W/m 12,6 km/h (3 Bft) 97,87 %
22.10.2015 14:24 13,4 C 13,3 C 12,2 C 95 % 0 lf 1013,9 hPa 0,0 l/m 0 min 0 min 67 W/m 16,7 km/h (3 Bft) 93,48 %
22.10.2015 14:26 13,4 C 13,3 C 12,2 C 95 % 0 lf 1014,0 hPa 0,0 l/m 0 min 0 min 66 W/m 16,7 km/h (3 Bft) 91,49 %
22.10.2015 14:28 13,4 C 13,3 C 12,2 C 95 % 0 lf 1014,0 hPa 0,0 l/m 0 min 0 min 58 W/m 18,8 km/h (3 Bft) 95,74 %
22.10.2015 14:30 13,3 C 13,3 C 12,2 C 95 % 0 lf 1014,0 hPa 0,0 l/m 0 min 0 min 60 W/m 14,6 km/h (3 Bft) 93,62 %
22.10.2015 14:32 13,3 C 13,3 C 12,2 C 95 % 0 lf 1014,0 hPa 0,0 l/m 0 min 0 min 61 W/m 18,8 km/h (3 Bft) 91,49 %
22.10.2015 14:34 13,3 C 13,3 C 12,2 C 95 % 1 lf 1014,0 hPa 0,0 l/m 0 min 0 min 73 W/m 23,0 km/h (4 Bft) 97,87 %
22.10.2015 14:36 13,3 C 13,3 C 12,2 C 95 % 2 lf 1014,0 hPa 0,0 l/m 0 min 0 min 64 W/m 14,6 km/h (3 Bft) 95,65 %
22.10.2015 14:38 13,3 C 13,3 C 11,7 C 95 % 4 lf 1014,0 hPa 0,0 l/m 0 min 0 min 67 W/m 18,8 km/h (3 Bft) 95,74 %
22.10.2015 14:40 13,3 C 13,3 C 11,7 C 95 % 11 lf 1014,0 hPa 0,0 l/m 0 min 0 min 75 W/m 18,8 km/h (3 Bft) 95,74 %
22.10.2015 14:42 13,3 C 13,3 C 11,7 C 95 % 12 lf 1014,0 hPa 0,0 l/m 0 min 0 min 75 W/m 12,6 km/h (3 Bft) 93,62 %
22.10.2015 14:44 13,3 C 13,3 C 11,7 C 95 % 12 lf 1014,0 hPa 0,0 l/m 0 min 0 min 83 W/m 18,8 km/h (3 Bft) 95,74 %
22.10.2015 14:46 13,3 C 13,3 C 11,7 C 95 % 13 lf 1014,0 hPa 0,0 l/m 0 min 0 min 83 W/m 10,5 km/h (2 Bft) 95,74 %
22.10.2015 14:48 13,3 C 13,3 C 11,7 C 95 % 12 lf 1014,0 hPa 0,0 l/m 0 min 0 min 83 W/m 16,7 km/h (3 Bft) 95,65 %
22.10.2015 14:50 13,3 C 13,3 C 11,7 C 95 % 12 lf 1014,0 hPa 0,0 l/m 0 min 2 min 102 W/m 12,6 km/h (3 Bft) 95,74 %
22.10.2015 14:52 13,3 C 13,3 C 12,2 C 95 % 12 lf 1014,0 hPa 0,0 l/m 0 min 0 min 142 W/m 12,6 km/h (3 Bft) 95,74 %
22.10.2015 14:54 13,3 C 13,9 C 12,2 C 95 % 12 lf 1014,0 hPa 0,0 l/m 0 min 2 min 132 W/m 16,7 km/h (3 Bft) 93,62 %
22.10.2015 14:56 13,3 C 13,9 C 12,2 C 95 % 10 lf 1014,0 hPa 0,0 l/m 0 min 0 min 118 W/m 16,7 km/h (3 Bft) 93,62 %
22.10.2015 14:58 13,3 C 13,9 C 12,2 C 96 % 9 lf 1014,1 hPa 0,0 l/m 0 min 2 min 93 W/m 14,6 km/h (3 Bft) 93,48 %
22.10.2015 15:00 13,3 C 13,9 C 12,2 C 96 % 7 lf 1014,0 hPa 0,0 l/m 0 min 0 min 92 W/m 14,6 km/h (3 Bft) 91,49 %
22.10.2015 15:02 13,3 C 13,9 C 12,2 C 96 % 5 lf 1014,1 hPa 0,0 l/m 0 min 0 min 75 W/m 12,6 km/h (3 Bft) 93,62 %
22.10.2015 15:04 13,3 C 13,3 C 12,2 C 96 % 4 lf 1014,0 hPa 0,0 l/m 0 min 0 min 76 W/m 14,6 km/h (3 Bft) 91,49 %
22.10.2015 15:06 13,3 C 13,9 C 12,2 C 96 % 3 lf 1014,0 hPa 0,0 l/m 0 min 0 min 76 W/m 12,6 km/h (3 Bft) 95,74 %
22.10.2015 15:08 13,3 C 13,9 C 12,2 C 96 % 2 lf 1014,0 hPa 0,0 l/m 0 min 0 min 84 W/m 20,9 km/h (4 Bft) 95,74 %
22.10.2015 15:10 13,3 C 13,9 C 12,2 C 96 % 1 lf 1014,0 hPa 0,0 l/m 0 min 0 min 87 W/m 16,7 km/h (3 Bft) 97,87 %
22.10.2015 15:12 13,3 C 13,9 C 12,2 C 96 % 0 lf 1014,1 hPa 0,0 l/m 0 min 0 min 91 W/m 18,8 km/h (3 Bft) 95,65 %
22.10.2015 15:14 13,3 C 13,9 C 12,2 C 96 % 0 lf 1014,1 hPa 0,0 l/m 0 min 0 min 98 W/m 16,7 km/h (3 Bft) 97,87 %
22.10.2015 15:16 13,3 C 13,9 C 12,2 C 96 % 0 lf 1014,2 hPa 0,0 l/m 0 min 0 min 104 W/m 20,9 km/h (4 Bft) 93,62 %
22.10.2015 15:18 13,3 C 14,4 C 12,2 C 96 % 0 lf 1014,1 hPa 0,0 l/m 0 min 0 min 98 W/m 14,6 km/h (3 Bft) 95,74 %
22.10.2015 15:20 13,3 C 14,4 C 12,2 C 96 % 0 lf 1014,1 hPa 0,0 l/m 0 min 0 min 122 W/m 14,6 km/h (3 Bft) 95,74 %
22.10.2015 15:22 13,4 C 14,4 C 12,2 C 96 % 0 lf 1014,1 hPa 0,0 l/m 0 min 0 min 98 W/m 14,6 km/h (3 Bft) 97,83 %
22.10.2015 15:24 13,4 C 14,4 C 12,2 C 96 % 0 lf 1014,2 hPa 0,0 l/m 0 min 0 min 100 W/m 10,5 km/h (2 Bft) 95,74 %
22.10.2015 15:26 13,4 C 14,4 C 12,8 C 96 % 0 lf 1014,1 hPa 0,0 l/m 0 min 0 min 94 W/m 8,4 km/h (2 Bft) 95,74 %
22.10.2015 15:28 13,4 C 14,4 C 12,8 C 96 % 0 lf 1014,1 hPa 0,0 l/m 0 min 0 min 103 W/m 12,6 km/h (3 Bft) 97,87 %
22.10.2015 15:30 13,4 C 14,4 C 12,8 C 96 % 0 lf 1014,2 hPa 0,0 l/m 0 min 0 min 111 W/m 18,8 km/h (3 Bft) 95,74 %
22.10.2015 15:32 13,4 C 14,4 C 12,8 C 96 % 0 lf 1014,1 hPa 0,0 l/m 0 min 0 min 115 W/m 18,8 km/h (3 Bft) 100,00 %
22.10.2015 15:34 13,5 C 14,4 C 12,8 C 96 % 0 lf 1014,2 hPa 0,0 l/m 0 min 0 min 115 W/m 20,9 km/h (4 Bft) 97,83 %
22.10.2015 15:36 13,5 C 14,4 C 12,8 C 96 % 0 lf 1014,1 hPa 0,0 l/m 0 min 0 min 113 W/m 16,7 km/h (3 Bft) 100,00 %
22.10.2015 15:38 13,5 C 14,4 C 12,8 C 96 % 0 lf 1014,2 hPa 0,0 l/m 0 min 0 min 112 W/m 20,9 km/h (4 Bft) 97,87 %
22.10.2015 15:40 13,6 C 14,4 C 12,8 C 96 % 0 lf 1014,3 hPa 0,0 l/m 0 min 0 min 98 W/m 14,6 km/h (3 Bft) 89,36 %
22.10.2015 15:42 13,6 C 14,4 C 12,8 C 96 % 0 lf 1014,3 hPa 0,0 l/m 0 min 0 min 78 W/m 18,8 km/h (3 Bft) 95,74 %
22.10.2015 15:44 13,6 C 13,9 C 12,8 C 96 % 0 lf 1014,3 hPa 0,0 l/m 0 min 0 min 76 W/m 20,9 km/h (4 Bft) 95,74 %
22.10.2015 15:46 13,6 C 13,9 C 12,8 C 96 % 0 lf 1014,2 hPa 0,0 l/m 0 min 0 min 91 W/m 16,7 km/h (3 Bft) 95,65 %
22.10.2015 15:48 13,6 C 14,4 C 12,8 C 96 % 0 lf 1014,2 hPa 0,0 l/m 0 min 0 min 87 W/m 12,6 km/h (3 Bft) 95,74 %
22.10.2015 15:50 13,6 C 14,4 C 12,8 C 96 % 0 lf 1014,2 hPa 0,0 l/m 0 min 0 min 87 W/m 14,6 km/h (3 Bft) 93,62 %
22.10.2015 15:52 13,6 C 14,4 C 12,8 C 96 % 0 lf 1014,3 hPa 0,0 l/m 0 min 0 min 90 W/m 12,6 km/h (3 Bft) 93,62 %
22.10.2015 15:54 13,7 C 14,4 C 12,8 C 96 % 1 lf 1014,3 hPa 0,0 l/m 0 min 0 min 82 W/m 16,7 km/h (3 Bft) 93,62 %
22.10.2015 15:56 13,7 C 14,4 C 12,8 C 96 % 2 lf 1014,3 hPa 0,0 l/m 0 min 0 min 81 W/m 14,6 km/h (3 Bft) 91,49 %
22.10.2015 15:58 13,7 C 14,4 C 12,8 C 96 % 1 lf 1014,3 hPa 0,0 l/m 0 min 0 min 75 W/m 16,7 km/h (3 Bft) 95,65 %
22.10.2015 16:00 13,7 C 13,9 C 12,8 C 96 % 1 lf 1014,3 hPa 0,0 l/m 0 min 0 min 74 W/m 14,6 km/h (3 Bft) 95,74 %
22.10.2015 16:02 13,7 C 14,4 C 12,8 C 96 % 1 lf 1014,3 hPa 0,0 l/m 0 min 0 min 71 W/m 12,6 km/h (3 Bft) 95,74 %
22.10.2015 16:04 13,7 C 13,9 C 12,2 C 96 % 1 lf 1014,3 hPa 0,0 l/m 0 min 0 min 63 W/m 14,6 km/h (3 Bft) 93,62 %
22.10.2015 16:06 13,7 C 13,9 C 12,2 C 96 % 1 lf 1014,3 hPa 0,0 l/m 0 min 0 min 64 W/m 14,6 km/h (3 Bft) 95,74 %
22.10.2015 16:08 13,8 C 13,9 C 12,2 C 96 % 1 lf 1014,3 hPa 0,0 l/m 0 min 0 min 70 W/m 20,9 km/h (4 Bft) 87,23 %
22.10.2015 16:10 13,7 C 13,9 C 12,2 C 96 % 1 lf 1014,3 hPa 0,0 l/m 0 min 0 min 68 W/m 18,8 km/h (3 Bft) 91,30 %
22.10.2015 16:12 13,8 C 13,9 C 12,2 C 96 % 2 lf 1014,3 hPa 0,0 l/m 0 min 0 min 62 W/m 12,6 km/h (3 Bft) 93,62 %
22.10.2015 16:14 13,8 C 13,9 C 12,2 C 96 % 2 lf 1014,3 hPa 0,0 l/m 0 min 0 min 55 W/m 14,6 km/h (3 Bft) 97,87 %
22.10.2015 16:16 13,8 C 13,9 C 12,2 C 96 % 2 lf 1014,3 hPa 0,0 l/m 0 min 0 min 46 W/m 20,9 km/h (4 Bft) 97,87 %
22.10.2015 16:18 13,8 C 13,9 C 12,2 C 96 % 12 lf 1014,3 hPa 0,0 l/m 0 min 0 min 38 W/m 16,7 km/h (3 Bft) 97,87 %
22.10.2015 16:20 13,8 C 13,9 C 12,2 C 96 % 15 lf 1014,4 hPa 0,0 l/m 0 min 2 min 46 W/m 23,0 km/h (4 Bft) 97,83 %
22.10.2015 16:22 13,7 C 13,3 C 12,2 C 96 % 15 lf 1014,4 hPa 0,0 l/m 0 min 2 min 56 W/m 25,1 km/h (4 Bft) 93,62 %
22.10.2015 16:24 13,7 C 13,3 C 12,2 C 96 % 15 lf 1014,4 hPa 0,0 l/m 0 min 2 min 75 W/m 27,2 km/h (4 Bft) 95,74 %
22.10.2015 16:26 13,7 C 13,3 C 12,2 C 96 % 15 lf 1014,4 hPa 0,0 l/m 0 min 2 min 75 W/m 23,0 km/h (4 Bft) 97,87 %
22.10.2015 16:28 13,7 C 13,3 C 12,2 C 96 % 15 lf 1014,4 hPa 0,0 l/m 0 min 2 min 79 W/m 23,0 km/h (4 Bft) 93,62 %
22.10.2015 16:30 13,7 C 13,9 C 12,2 C 96 % 15 lf 1014,4 hPa 0,0 l/m 0 min 2 min 94 W/m 20,9 km/h (4 Bft) 100,00 %
22.10.2015 16:32 13,7 C 13,9 C 12,2 C 96 % 14 lf 1014,5 hPa 0,0 l/m 0 min 0 min 95 W/m 18,8 km/h (3 Bft) 97,83 %
22.10.2015 16:34 13,6 C 13,9 C 12,2 C 96 % 13 lf 1014,4 hPa 0,0 l/m 0 min 2 min 95 W/m 14,6 km/h (3 Bft) 97,87 %
22.10.2015 16:36 13,6 C 13,9 C 12,2 C 96 % 13 lf 1014,6 hPa 0,0 l/m 0 min 0 min 102 W/m 16,7 km/h (3 Bft) 97,87 %
22.10.2015 16:38 13,6 C 13,9 C 12,2 C 96 % 11 lf 1014,5 hPa 0,0 l/m 0 min 2 min 110 W/m 20,9 km/h (4 Bft) 100,00 %
22.10.2015 16:40 13,6 C 14,4 C 12,2 C 96 % 9 lf 1014,5 hPa 0,0 l/m 0 min 0 min 117 W/m 12,6 km/h (3 Bft) 97,87 %
22.10.2015 16:42 13,6 C 14,4 C 12,2 C 96 % 7 lf 1014,5 hPa 0,0 l/m 0 min 0 min 111 W/m 12,6 km/h (3 Bft) 100,00 %
22.10.2015 16:44 13,7 C 14,4 C 12,2 C 96 % 4 lf 1014,5 hPa 0,0 l/m 0 min 0 min 109 W/m 12,6 km/h (3 Bft) 100,00 %
22.10.2015 16:46 13,7 C 15,0 C 12,2 C 96 % 3 lf 1014,5 hPa 0,0 l/m 0 min 0 min 103 W/m 12,6 km/h (3 Bft) 100,00 %
22.10.2015 16:48 13,7 C 14,4 C 12,2 C 96 % 1 lf 1014,6 hPa 0,0 l/m 0 min 0 min 105 W/m 14,6 km/h (3 Bft) 100,00 %
22.10.2015 16:50 13,7 C 15,0 C 12,2 C 96 % 0 lf 1014,6 hPa 0,0 l/m 0 min 0 min 104 W/m 14,6 km/h (3 Bft) 97,87 %
22.10.2015 16:52 13,7 C 15,0 C 12,2 C 96 % 0 lf 1014,6 hPa 0,0 l/m 0 min 0 min 94 W/m 12,6 km/h (3 Bft) 97,87 %
22.10.2015 16:54 13,7 C 14,4 C 12,2 C 96 % 0 lf 1014,6 hPa 0,0 l/m 0 min 0 min 85 W/m 18,8 km/h (3 Bft) 100,00 %
22.10.2015 16:56 13,7 C 14,4 C 12,2 C 96 % 0 lf 1014,6 hPa 0,0 l/m 0 min 0 min 88 W/m 8,4 km/h (2 Bft) 100,00 %
22.10.2015 16:58 13,7 C 14,4 C 12,2 C 96 % 0 lf 1014,7 hPa 0,0 l/m 0 min 0 min 87 W/m 12,6 km/h (3 Bft) 100,00 %
22.10.2015 17:00 13,7 C 14,4 C 12,2 C 96 % 0 lf 1014,8 hPa 0,0 l/m 0 min 0 min 82 W/m 14,6 km/h (3 Bft) 97,87 %
22.10.2015 17:02 13,7 C 14,4 C 12,2 C 96 % 0 lf 1014,9 hPa 0,0 l/m 0 min 0 min 72 W/m 14,6 km/h (3 Bft) 100,00 %
22.10.2015 17:04 13,7 C 14,4 C 12,2 C 96 % 0 lf 1014,9 hPa 0,0 l/m 0 min 0 min 58 W/m 12,6 km/h (3 Bft) 100,00 %
22.10.2015 17:06 13,7 C 14,4 C 12,2 C 96 % 0 lf 1014,9 hPa 0,0 l/m 0 min 0 min 50 W/m 12,6 km/h (3 Bft) 97,87 %
22.10.2015 17:08 13,7 C 14,4 C 12,2 C 96 % 0 lf 1015,0 hPa 0,0 l/m 0 min 0 min 48 W/m 10,5 km/h (2 Bft) 100,00 %
22.10.2015 17:10 13,7 C 14,4 C 12,2 C 96 % 0 lf 1015,0 hPa 0,0 l/m 0 min 0 min 46 W/m 8,4 km/h (2 Bft) 97,87 %
22.10.2015 17:12 13,7 C 14,4 C 12,2 C 96 % 0 lf 1014,9 hPa 0,0 l/m 0 min 0 min 43 W/m 14,6 km/h (3 Bft) 100,00 %
22.10.2015 17:14 13,7 C 14,4 C 12,2 C 96 % 0 lf 1015,0 hPa 0,0 l/m 0 min 0 min 38 W/m 12,6 km/h (3 Bft) 97,87 %
22.10.2015 17:16 13,7 C 13,9 C 12,2 C 96 % 0 lf 1015,0 hPa 0,0 l/m 0 min 0 min 29 W/m 14,6 km/h (3 Bft) 95,74 %
22.10.2015 17:18 13,7 C 13,9 C 12,2 C 96 % 4 lf 1015,1 hPa 0,0 l/m 0 min 0 min 24 W/m 20,9 km/h (4 Bft) 93,62 %
22.10.2015 17:20 13,7 C 13,9 C 12,2 C 96 % 14 lf 1015,1 hPa 0,0 l/m 0 min 0 min 23 W/m 16,7 km/h (3 Bft) 95,65 %
22.10.2015 17:22 13,7 C 13,9 C 12,2 C 96 % 15 lf 1015,1 hPa 0,0 l/m 0 min 2 min 19 W/m 14,6 km/h (3 Bft) 95,74 %
22.10.2015 17:24 13,7 C 13,9 C 12,2 C 96 % 15 lf 1015,2 hPa 0,0 l/m 0 min 2 min 18 W/m 12,6 km/h (3 Bft) 95,74 %
22.10.2015 17:26 13,7 C 13,9 C 12,2 C 96 % 15 lf 1015,2 hPa 0,0 l/m 0 min 0 min 15 W/m 12,6 km/h (3 Bft) 95,74 %
22.10.2015 17:28 13,7 C 13,3 C 12,2 C 96 % 15 lf 1015,3 hPa 0,0 l/m 0 min 2 min 12 W/m 10,5 km/h (2 Bft) 95,74 %
22.10.2015 17:30 13,7 C 13,3 C 11,7 C 96 % 15 lf 1015,3 hPa 0,0 l/m 0 min 0 min 8 W/m 12,6 km/h (3 Bft) 93,62 %
22.10.2015 17:32 13,7 C 13,3 C 11,7 C 96 % 15 lf 1015,4 hPa 0,0 l/m 0 min 2 min 7 W/m 16,7 km/h (3 Bft) 97,83 %
22.10.2015 17:34 13,7 C 13,3 C 11,7 C 96 % 15 lf 1015,5 hPa 0,0 l/m 0 min 2 min 8 W/m 16,7 km/h (3 Bft) 95,74 %
22.10.2015 17:36 13,7 C 12,8 C 11,7 C 96 % 15 lf 1015,4 hPa 0,2 l/m 0 min 2 min 9 W/m 16,7 km/h (3 Bft) 97,87 %
22.10.2015 17:38 13,6 C 12,8 C 11,7 C 96 % 15 lf 1015,5 hPa 0,0 l/m 0 min 2 min 9 W/m 16,7 km/h (3 Bft) 95,74 %
22.10.2015 17:40 13,6 C 12,8 C 11,1 C 96 % 15 lf 1015,6 hPa 0,2 l/m 0 min 2 min 9 W/m 18,8 km/h (3 Bft) 95,74 %
22.10.2015 17:42 13,4 C 12,8 C 11,1 C 96 % 15 lf 1015,6 hPa 0,0 l/m 0 min 2 min 12 W/m 14,6 km/h (3 Bft) 93,62 %
22.10.2015 17:44 13,4 C 12,8 C 11,1 C 96 % 15 lf 1015,6 hPa 0,0 l/m 0 min 2 min 12 W/m 16,7 km/h (3 Bft) 91,30 %
22.10.2015 17:46 13,4 C 12,8 C 11,1 C 95 % 15 lf 1015,7 hPa 0,0 l/m 0 min 0 min 12 W/m 16,7 km/h (3 Bft) 95,74 %
22.10.2015 17:48 13,3 C 12,8 C 11,1 C 95 % 15 lf 1015,6 hPa 0,0 l/m 0 min 0 min 12 W/m 14,6 km/h (3 Bft) 95,74 %
22.10.2015 17:50 13,3 C 12,8 C 11,7 C 95 % 15 lf 1015,7 hPa 0,0 l/m 0 min 2 min 12 W/m 10,5 km/h (2 Bft) 93,62 %
22.10.2015 17:52 13,3 C 12,8 C 11,7 C 95 % 15 lf 1015,7 hPa 0,0 l/m 0 min 2 min 12 W/m 18,8 km/h (3 Bft) 93,62 %
22.10.2015 17:54 13,3 C 12,8 C 11,1 C 95 % 15 lf 1015,7 hPa 0,0 l/m 0 min 0 min 11 W/m 18,8 km/h (3 Bft) 95,65 %
22.10.2015 17:56 13,2 C 12,8 C 11,1 C 95 % 15 lf 1015,7 hPa 0,0 l/m 0 min 0 min 11 W/m 16,7 km/h (3 Bft) 95,74 %
22.10.2015 17:58 13,2 C 12,8 C 11,1 C 95 % 15 lf 1015,7 hPa 0,0 l/m 0 min 0 min 11 W/m 10,5 km/h (2 Bft) 93,62 %
22.10.2015 18:00 13,2 C 12,8 C 11,1 C 96 % 15 lf 1015,7 hPa 0,0 l/m 0 min 0 min 11 W/m 8,4 km/h (2 Bft) 95,74 %
22.10.2015 18:02 13,2 C 12,8 C 11,1 C 96 % 15 lf 1015,7 hPa 0,0 l/m 0 min 0 min 9 W/m 8,4 km/h (2 Bft) 95,74 %
22.10.2015 18:06 13,2 C 12,8 C 11,1 C 96 % 15 lf 1015,7 hPa 0,0 l/m 0 min 0 min 8 W/m 14,6 km/h (3 Bft) 95,70 %
22.10.2015 18:08 13,2 C 12,8 C 11,1 C 96 % 15 lf 1015,8 hPa 0,0 l/m 0 min 0 min 7 W/m 14,6 km/h (3 Bft) 93,62 %
22.10.2015 18:10 13,1 C 12,2 C 11,1 C 96 % 15 lf 1015,8 hPa 0,0 l/m 0 min 0 min 7 W/m 12,6 km/h (3 Bft) 95,74 %
22.10.2015 18:12 13,1 C 12,2 C 11,1 C 96 % 15 lf 1015,8 hPa 0,0 l/m 0 min 0 min 7 W/m 10,5 km/h (2 Bft) 97,87 %
22.10.2015 18:14 13,1 C 12,2 C 11,1 C 96 % 15 lf 1015,8 hPa 0,0 l/m 0 min 0 min 7 W/m 8,4 km/h (2 Bft) 97,87 %
22.10.2015 18:16 13,1 C 12,2 C 11,1 C 96 % 15 lf 1015,9 hPa 0,0 l/m 0 min 0 min 7 W/m 10,5 km/h (2 Bft) 93,62 %
22.10.2015 18:18 13,1 C 12,2 C 11,1 C 96 % 15 lf 1015,9 hPa 0,0 l/m 0 min 0 min 6 W/m 10,5 km/h (2 Bft) 95,65 %
22.10.2015 18:20 13,0 C 12,2 C 11,1 C 96 % 15 lf 1016,0 hPa 0,0 l/m 0 min 0 min 5 W/m 8,4 km/h (2 Bft) 93,62 %
22.10.2015 18:22 13,0 C 12,2 C 11,1 C 96 % 15 lf 1015,9 hPa 0,0 l/m 0 min 0 min 5 W/m 12,6 km/h (3 Bft) 97,87 %
22.10.2015 18:24 13,0 C 12,2 C 11,1 C 96 % 15 lf 1016,0 hPa 0,0 l/m 0 min 0 min 3 W/m 8,4 km/h (2 Bft) 91,49 %
22.10.2015 18:26 13,0 C 12,2 C 11,1 C 96 % 15 lf 1015,9 hPa 0,0 l/m 0 min 0 min 0 W/m 12,6 km/h (3 Bft) 97,87 %
22.10.2015 18:28 12,9 C 12,2 C 11,1 C 96 % 15 lf 1016,0 hPa 0,0 l/m 0 min 0 min 0 W/m 8,4 km/h (2 Bft) 97,87 %
22.10.2015 18:30 12,9 C 12,2 C 11,1 C 96 % 15 lf 1016,0 hPa 0,0 l/m 0 min 0 min 0 W/m 6,3 km/h (2 Bft) 97,83 %
22.10.2015 18:32 12,9 C 12,2 C 11,1 C 96 % 15 lf 1016,1 hPa 0,0 l/m 0 min 0 min 0 W/m 6,3 km/h (2 Bft) 97,87 %
22.10.2015 18:34 12,9 C 12,2 C 11,1 C 96 % 15 lf 1016,0 hPa 0,0 l/m 0 min 0 min 0 W/m 6,3 km/h (2 Bft) 95,74 %
22.10.2015 18:36 12,9 C 12,2 C 11,1 C 96 % 15 lf 1016,1 hPa 0,0 l/m 0 min 0 min 0 W/m 8,4 km/h (2 Bft) 97,87 %
22.10.2015 18:38 12,9 C 12,2 C 11,1 C 96 % 15 lf 1016,1 hPa 0,0 l/m 0 min 0 min 0 W/m 12,6 km/h (3 Bft) 95,74 %
22.10.2015 18:40 12,9 C 12,2 C 11,1 C 96 % 15 lf 1016,1 hPa 0,0 l/m 0 min 0 min 0 W/m 10,5 km/h (2 Bft) 95,74 %
22.10.2015 18:42 12,8 C 12,2 C 11,1 C 96 % 15 lf 1016,2 hPa 0,0 l/m 0 min 0 min 0 W/m 10,5 km/h (2 Bft) 91,30 %
22.10.2015 18:44 12,8 C 12,2 C 11,1 C 96 % 15 lf 1016,2 hPa 0,0 l/m 0 min 0 min 0 W/m 10,5 km/h (2 Bft) 93,62 %
22.10.2015 18:46 12,8 C 12,2 C 11,1 C 96 % 15 lf 1016,2 hPa 0,0 l/m 0 min 0 min 0 W/m 10,5 km/h (2 Bft) 93,62 %
22.10.2015 18:48 12,8 C 12,2 C 11,1 C 96 % 15 lf 1016,3 hPa 0,0 l/m 0 min 0 min 0 W/m 10,5 km/h (2 Bft) 95,74 %
22.10.2015 18:50 12,8 C 12,2 C 11,1 C 96 % 15 lf 1016,3 hPa 0,0 l/m 0 min 0 min 0 W/m 8,4 km/h (2 Bft) 93,62 %
22.10.2015 18:52 12,8 C 12,2 C 11,1 C 96 % 15 lf 1016,3 hPa 0,0 l/m 0 min 0 min 0 W/m 10,5 km/h (2 Bft) 93,62 %
22.10.2015 18:54 12,8 C 12,2 C 11,1 C 96 % 15 lf 1016,3 hPa 0,0 l/m 0 min 0 min 0 W/m 14,6 km/h (3 Bft) 95,65 %
22.10.2015 18:56 12,8 C 12,2 C 11,1 C 96 % 15 lf 1016,3 hPa 0,0 l/m 0 min 0 min 0 W/m 10,5 km/h (2 Bft) 95,74 %
22.10.2015 18:58 12,8 C 12,2 C 11,1 C 96 % 15 lf 1016,4 hPa 0,0 l/m 0 min 0 min 0 W/m 10,5 km/h (2 Bft) 91,49 %
22.10.2015 19:00 12,8 C 12,2 C 11,1 C 97 % 15 lf 1016,4 hPa 0,0 l/m 0 min 0 min 0 W/m 10,5 km/h (2 Bft) 95,74 %
22.10.2015 19:02 12,8 C 12,2 C 11,1 C 97 % 15 lf 1016,4 hPa 0,0 l/m 0 min 0 min 0 W/m 12,6 km/h (3 Bft) 95,74 %
22.10.2015 19:04 12,8 C 12,2 C 11,1 C 97 % 15 lf 1016,5 hPa 0,0 l/m 0 min 0 min 0 W/m 18,8 km/h (3 Bft) 95,65 %
22.10.2015 19:06 12,8 C 12,2 C 11,1 C 97 % 15 lf 1016,5 hPa 0,0 l/m 0 min 0 min 0 W/m 12,6 km/h (3 Bft) 95,74 %
22.10.2015 19:08 12,8 C 12,2 C 11,1 C 96 % 15 lf 1016,6 hPa 0,0 l/m 0 min 0 min 0 W/m 14,6 km/h (3 Bft) 95,74 %
22.10.2015 19:10 12,8 C 12,2 C 11,1 C 97 % 15 lf 1016,6 hPa 0,0 l/m 0 min 0 min 0 W/m 12,6 km/h (3 Bft) 89,36 %
22.10.2015 19:12 12,8 C 12,8 C 11,1 C 97 % 15 lf 1016,7 hPa 0,0 l/m 0 min 0 min 0 W/m 12,6 km/h (3 Bft) 93,62 %
22.10.2015 19:14 12,8 C 12,8 C 11,1 C 97 % 15 lf 1016,8 hPa 0,0 l/m 0 min 0 min 0 W/m 10,5 km/h (2 Bft) 93,62 %
22.10.2015 19:16 12,8 C 12,8 C 11,1 C 97 % 15 lf 1016,7 hPa 0,0 l/m 0 min 0 min 0 W/m 10,5 km/h (2 Bft) 97,83 %
22.10.2015 19:18 12,8 C 12,8 C 11,1 C 97 % 15 lf 1016,8 hPa 0,0 l/m 0 min 0 min 0 W/m 14,6 km/h (3 Bft) 93,62 %
22.10.2015 19:20 12,8 C 12,8 C 11,1 C 97 % 15 lf 1016,7 hPa 0,0 l/m 0 min 0 min 0 W/m 14,6 km/h (3 Bft) 95,74 %
22.10.2015 19:22 12,8 C 12,8 C 11,1 C 97 % 15 lf 1016,8 hPa 0,0 l/m 0 min 0 min 0 W/m 16,7 km/h (3 Bft) 91,49 %
22.10.2015 19:24 12,8 C 12,8 C 11,1 C 97 % 15 lf 1016,8 hPa 0,0 l/m 0 min 0 min 0 W/m 10,5 km/h (2 Bft) 95,74 %
22.10.2015 19:26 12,8 C 12,8 C 11,1 C 97 % 15 lf 1016,9 hPa 0,0 l/m 0 min 0 min 0 W/m 12,6 km/h (3 Bft) 97,87 %
22.10.2015 19:28 12,8 C 12,8 C 11,1 C 97 % 15 lf 1016,9 hPa 0,0 l/m 0 min 0 min 0 W/m 14,6 km/h (3 Bft) 97,83 %
22.10.2015 19:30 12,8 C 12,8 C 11,1 C 97 % 15 lf 1016,9 hPa 0,0 l/m 0 min 0 min 0 W/m 10,5 km/h (2 Bft) 97,87 %
22.10.2015 19:32 12,8 C 12,8 C 11,1 C 97 % 15 lf 1016,9 hPa 0,0 l/m 0 min 0 min 0 W/m 8,4 km/h (2 Bft) 97,87 %
22.10.2015 19:34 12,8 C 12,8 C 11,1 C 97 % 15 lf 1016,9 hPa 0,0 l/m 0 min 0 min 0 W/m 10,5 km/h (2 Bft) 97,87 %
22.10.2015 19:36 12,8 C 12,2 C 11,1 C 97 % 15 lf 1017,0 hPa 0,0 l/m 0 min 0 min 0 W/m 8,4 km/h (2 Bft) 97,87 %
22.10.2015 19:38 12,8 C 12,2 C 11,1 C 97 % 15 lf 1017,1 hPa 0,0 l/m 0 min 0 min 0 W/m 10,5 km/h (2 Bft) 97,87 %
22.10.2015 19:40 12,8 C 12,2 C 11,1 C 97 % 15 lf 1017,1 hPa 0,0 l/m 0 min 0 min 0 W/m 14,6 km/h (3 Bft) 95,65 %
22.10.2015 19:42 12,8 C 12,2 C 11,1 C 97 % 15 lf 1017,1 hPa 0,0 l/m 0 min 0 min 0 W/m 10,5 km/h (2 Bft) 97,87 %
22.10.2015 19:44 12,8 C 12,8 C 11,1 C 97 % 15 lf 1017,2 hPa 0,0 l/m 0 min 0 min 0 W/m 10,5 km/h (2 Bft) 97,87 %
22.10.2015 19:46 12,8 C 12,2 C 11,1 C 97 % 15 lf 1017,2 hPa 0,0 l/m 0 min 0 min 0 W/m 6,3 km/h (2 Bft) 97,87 %
22.10.2015 19:48 12,8 C 12,2 C 11,1 C 97 % 15 lf 1017,2 hPa 0,0 l/m 0 min 0 min 0 W/m 10,5 km/h (2 Bft) 95,74 %
22.10.2015 19:50 12,7 C 12,2 C 11,1 C 97 % 15 lf 1017,3 hPa 0,0 l/m 0 min 0 min 0 W/m 10,5 km/h (2 Bft) 97,87 %
22.10.2015 19:52 12,8 C 12,2 C 11,1 C 97 % 15 lf 1017,3 hPa 0,0 l/m 0 min 0 min 0 W/m 16,7 km/h (3 Bft) 97,83 %
22.10.2015 19:54 12,7 C 12,2 C 11,1 C 97 % 15 lf 1017,3 hPa 0,0 l/m 0 min 0 min 0 W/m 14,6 km/h (3 Bft) 97,87 %
22.10.2015 19:56 12,7 C 12,2 C 11,1 C 97 % 15 lf 1017,4 hPa 0,0 l/m 0 min 0 min 0 W/m 12,6 km/h (3 Bft) 95,74 %
22.10.2015 19:58 12,7 C 12,2 C 11,1 C 97 % 15 lf 1017,5 hPa 0,0 l/m 0 min 0 min 0 W/m 12,6 km/h (3 Bft) 97,87 %
22.10.2015 20:00 12,7 C 12,8 C 11,1 C 97 % 15 lf 1017,5 hPa 0,0 l/m 0 min 0 min 0 W/m 14,6 km/h (3 Bft) 95,74 %
22.10.2015 20:02 12,7 C 12,2 C 11,1 C 97 % 15 lf 1017,6 hPa 0,0 l/m 0 min 2 min 0 W/m 10,5 km/h (2 Bft) 95,74 %
22.10.2015 20:04 12,7 C 12,2 C 11,1 C 97 % 15 lf 1017,6 hPa 0,0 l/m 0 min 2 min 0 W/m 16,7 km/h (3 Bft) 97,83 %
22.10.2015 20:06 12,7 C 12,2 C 11,1 C 97 % 15 lf 1017,5 hPa 0,0 l/m 0 min 0 min 0 W/m 12,6 km/h (3 Bft) 95,74 %
22.10.2015 20:08 12,7 C 12,2 C 11,1 C 97 % 15 lf 1017,6 hPa 0,0 l/m 0 min 0 min 0 W/m 8,4 km/h (2 Bft) 95,74 %
22.10.2015 20:10 12,7 C 12,2 C 11,1 C 97 % 15 lf 1017,7 hPa 0,0 l/m 0 min 0 min 0 W/m 8,4 km/h (2 Bft) 93,62 %
22.10.2015 20:12 12,7 C 12,2 C 11,1 C 97 % 15 lf 1017,7 hPa 0,0 l/m 0 min 0 min 0 W/m 14,6 km/h (3 Bft) 97,87 %
22.10.2015 20:14 12,7 C 12,2 C 11,1 C 97 % 15 lf 1017,7 hPa 0,0 l/m 0 min 0 min 0 W/m 10,5 km/h (2 Bft) 97,83 %
22.10.2015 20:16 12,7 C 12,2 C 11,1 C 97 % 15 lf 1017,7 hPa 0,0 l/m 0 min 0 min 0 W/m 6,3 km/h (2 Bft) 97,87 %
22.10.2015 20:18 12,7 C 12,2 C 11,1 C 97 % 15 lf 1017,7 hPa 0,0 l/m 0 min 0 min 0 W/m 10,5 km/h (2 Bft) 95,74 %
22.10.2015 20:20 12,7 C 12,2 C 11,1 C 97 % 15 lf 1017,7 hPa 0,0 l/m 0 min 0 min 0 W/m 10,5 km/h (2 Bft) 97,87 %
22.10.2015 20:22 12,7 C 12,2 C 11,1 C 97 % 15 lf 1017,7 hPa 0,0 l/m 0 min 0 min 0 W/m 6,3 km/h (2 Bft) 95,74 %
22.10.2015 20:24 12,7 C 12,2 C 11,1 C 97 % 15 lf 1017,8 hPa 0,0 l/m 0 min 2 min 0 W/m 8,4 km/h (2 Bft) 93,62 %
22.10.2015 20:26 12,7 C 12,2 C 11,1 C 97 % 15 lf 1017,7 hPa 0,0 l/m 0 min 0 min 0 W/m 8,4 km/h (2 Bft) 97,83 %
22.10.2015 20:28 12,7 C 12,2 C 11,1 C 97 % 15 lf 1017,8 hPa 0,0 l/m 0 min 0 min 0 W/m 10,5 km/h (2 Bft) 91,49 %
22.10.2015 20:30 12,6 C 12,2 C 11,1 C 97 % 15 lf 1017,8 hPa 0,0 l/m 0 min 2 min 0 W/m 8,4 km/h (2 Bft) 95,74 %
22.10.2015 20:32 12,6 C 12,2 C 11,1 C 97 % 15 lf 1017,9 hPa 0,0 l/m 0 min 2 min 0 W/m 14,6 km/h (3 Bft) 95,74 %
22.10.2015 20:34 12,6 C 12,2 C 11,1 C 97 % 15 lf 1017,9 hPa 0,0 l/m 0 min 2 min 0 W/m 10,5 km/h (2 Bft) 95,74 %
22.10.2015 20:36 12,6 C 12,2 C 11,1 C 97 % 15 lf 1017,9 hPa 0,0 l/m 0 min 2 min 0 W/m 8,4 km/h (2 Bft) 97,87 %
22.10.2015 20:38 12,6 C 12,2 C 11,1 C 97 % 15 lf 1017,9 hPa 0,0 l/m 0 min 0 min 0 W/m 14,6 km/h (3 Bft) 95,65 %
22.10.2015 20:40 12,6 C 12,2 C 10,6 C 97 % 15 lf 1018,0 hPa 0,0 l/m 0 min 2 min 0 W/m 10,5 km/h (2 Bft) 93,62 %
22.10.2015 20:42 12,6 C 12,2 C 10,6 C 97 % 15 lf 1018,0 hPa 0,0 l/m 0 min 0 min 0 W/m 16,7 km/h (3 Bft) 97,87 %
22.10.2015 20:44 12,5 C 11,7 C 10,6 C 97 % 15 lf 1018,1 hPa 0,0 l/m 0 min 0 min 0 W/m 10,5 km/h (2 Bft) 97,87 %
22.10.2015 20:46 12,4 C 11,7 C 10,6 C 97 % 15 lf 1018,1 hPa 0,0 l/m 0 min 0 min 0 W/m 10,5 km/h (2 Bft) 91,49 %
22.10.2015 20:48 12,4 C 11,7 C 10,6 C 97 % 15 lf 1018,1 hPa 0,0 l/m 0 min 0 min 0 W/m 14,6 km/h (3 Bft) 93,62 %
22.10.2015 20:50 12,4 C 11,7 C 10,0 C 97 % 15 lf 1018,1 hPa 0,0 l/m 0 min 0 min 0 W/m 14,6 km/h (3 Bft) 95,65 %
22.10.2015 20:52 12,3 C 11,7 C 10,0 C 97 % 15 lf 1018,2 hPa 0,0 l/m 0 min 0 min 0 W/m 14,6 km/h (3 Bft) 97,87 %
22.10.2015 20:54 12,2 C 11,7 C 10,0 C 97 % 15 lf 1018,2 hPa 0,0 l/m 0 min 0 min 0 W/m 12,6 km/h (3 Bft) 97,87 %
22.10.2015 20:56 12,2 C 11,7 C 10,0 C 97 % 15 lf 1018,2 hPa 0,0 l/m 0 min 0 min 0 W/m 12,6 km/h (3 Bft) 89,36 %
22.10.2015 20:58 12,1 C 11,7 C 10,0 C 97 % 15 lf 1018,3 hPa 0,0 l/m 0 min 0 min 0 W/m 12,6 km/h (3 Bft) 97,87 %
22.10.2015 21:00 12,1 C 11,7 C 10,0 C 97 % 15 lf 1018,3 hPa 0,0 l/m 0 min 0 min 0 W/m 8,4 km/h (2 Bft) 100,00 %
22.10.2015 21:02 12,1 C 11,7 C 10,0 C 97 % 15 lf 1018,3 hPa 0,0 l/m 0 min 0 min 0 W/m 10,5 km/h (2 Bft) 100,00 %
22.10.2015 21:04 12,0 C 11,1 C 10,0 C 97 % 15 lf 1018,3 hPa 0,0 l/m 0 min 0 min 0 W/m 8,4 km/h (2 Bft) 100,00 %
22.10.2015 21:06 12,0 C 11,1 C 10,0 C 97 % 15 lf 1018,4 hPa 0,0 l/m 0 min 0 min 0 W/m 8,4 km/h (2 Bft) 97,87 %
22.10.2015 21:08 11,9 C 11,1 C 10,0 C 97 % 15 lf 1018,3 hPa 0,0 l/m 0 min 0 min 0 W/m 8,4 km/h (2 Bft) 95,74 %
22.10.2015 21:10 11,9 C 11,1 C 10,0 C 97 % 15 lf 1018,5 hPa 0,0 l/m 0 min 0 min 0 W/m 8,4 km/h (2 Bft) 97,87 %
22.10.2015 21:12 11,9 C 11,1 C 10,0 C 97 % 15 lf 1018,5 hPa 0,0 l/m 0 min 0 min 0 W/m 8,4 km/h (2 Bft) 97,87 %
22.10.2015 21:14 11,9 C 11,1 C 10,0 C 97 % 15 lf 1018,5 hPa 0,0 l/m 0 min 0 min 0 W/m 8,4 km/h (2 Bft) 100,00 %
22.10.2015 21:16 11,9 C 11,1 C 10,0 C 97 % 15 lf 1018,5 hPa 0,0 l/m 0 min 0 min 0 W/m 6,3 km/h (2 Bft) 95,74 %
22.10.2015 21:18 11,8 C 11,1 C 10,0 C 97 % 15 lf 1018,5 hPa 0,0 l/m 0 min 0 min 0 W/m 6,3 km/h (2 Bft) 97,87 %
22.10.2015 21:20 11,8 C 11,1 C 10,0 C 97 % 15 lf 1018,6 hPa 0,0 l/m 0 min 0 min 0 W/m 6,3 km/h (2 Bft) 95,74 %
22.10.2015 21:22 11,8 C 11,1 C 10,0 C 97 % 15 lf 1018,6 hPa 0,0 l/m 0 min 0 min 0 W/m 6,3 km/h (2 Bft) 97,87 %
22.10.2015 21:24 11,8 C 11,1 C 10,0 C 97 % 15 lf 1018,7 hPa 0,0 l/m 0 min 0 min 0 W/m 8,4 km/h (2 Bft) 100,00 %
22.10.2015 21:26 11,8 C 11,1 C 10,0 C 97 % 15 lf 1018,7 hPa 0,0 l/m 0 min 0 min 0 W/m 6,3 km/h (2 Bft) 95,65 %
22.10.2015 21:28 11,8 C 11,1 C 10,0 C 97 % 15 lf 1018,7 hPa 0,0 l/m 0 min 0 min 0 W/m 6,3 km/h (2 Bft) 97,87 %
22.10.2015 21:30 11,7 C 11,1 C 10,0 C 97 % 15 lf 1018,8 hPa 0,0 l/m 0 min 0 min 0 W/m 6,3 km/h (2 Bft) 89,36 %
22.10.2015 21:32 11,7 C 11,1 C 10,0 C 97 % 15 lf 1018,8 hPa 0,0 l/m 0 min 0 min 0 W/m 6,3 km/h (2 Bft) 95,74 %
22.10.2015 21:34 11,7 C 11,1 C 10,0 C 97 % 15 lf 1018,8 hPa 0,0 l/m 0 min 0 min 0 W/m 8,4 km/h (2 Bft) 95,74 %
22.10.2015 21:36 11,7 C 11,1 C 10,0 C 97 % 15 lf 1018,8 hPa 0,0 l/m 0 min 0 min 0 W/m 10,5 km/h (2 Bft) 95,74 %
22.10.2015 21:38 11,6 C 11,1 C 10,0 C 97 % 15 lf 1018,9 hPa 0,0 l/m 0 min 0 min 0 W/m 6,3 km/h (2 Bft) 95,65 %
22.10.2015 21:40 11,6 C 11,1 C 10,0 C 97 % 15 lf 1019,0 hPa 0,0 l/m 0 min 0 min 0 W/m 6,3 km/h (2 Bft) 95,74 %
22.10.2015 21:42 11,6 C 11,1 C 10,0 C 97 % 15 lf 1019,0 hPa 0,0 l/m 0 min 0 min 0 W/m 8,4 km/h (2 Bft) 95,74 %
22.10.2015 21:44 11,6 C 11,1 C 10,0 C 97 % 15 lf 1019,0 hPa 0,0 l/m 0 min 0 min 0 W/m 8,4 km/h (2 Bft) 95,74 %
22.10.2015 21:46 11,6 C 11,1 C 10,0 C 97 % 15 lf 1019,0 hPa 0,0 l/m 0 min 0 min 0 W/m 8,4 km/h (2 Bft) 93,62 %
22.10.2015 21:48 11,6 C 11,1 C 10,0 C 97 % 15 lf 1019,0 hPa 0,0 l/m 0 min 0 min 0 W/m 8,4 km/h (2 Bft) 93,48 %
22.10.2015 21:50 11,6 C 11,1 C 10,0 C 97 % 15 lf 1019,1 hPa 0,0 l/m 0 min 0 min 0 W/m 6,3 km/h (2 Bft) 93,62 %
22.10.2015 21:52 11,5 C 11,1 C 10,0 C 97 % 15 lf 1019,1 hPa 0,0 l/m 0 min 0 min 0 W/m 6,3 km/h (2 Bft) 95,74 %
22.10.2015 21:54 11,5 C 11,1 C 10,0 C 97 % 15 lf 1019,1 hPa 0,0 l/m 0 min 0 min 0 W/m 6,3 km/h (2 Bft) 91,49 %
22.10.2015 21:56 11,5 C 11,1 C 10,0 C 97 % 15 lf 1019,1 hPa 0,0 l/m 0 min 0 min 0 W/m 6,3 km/h (2 Bft) 97,87 %
22.10.2015 21:58 11,5 C 11,1 C 9,4 C 97 % 15 lf 1019,1 hPa 0,0 l/m 0 min 0 min 0 W/m 8,4 km/h (2 Bft) 97,87 %
22.10.2015 22:00 11,5 C 11,1 C 10,0 C 97 % 15 lf 1019,2 hPa 0,0 l/m 0 min 0 min 0 W/m 6,3 km/h (2 Bft) 93,48 %
22.10.2015 22:02 11,5 C 11,1 C 9,4 C 97 % 15 lf 1019,2 hPa 0,0 l/m 0 min 0 min 0 W/m 2,1 km/h (1 Bft) 95,74 %
22.10.2015 22:04 11,4 C 11,1 C 9,4 C 97 % 15 lf 1019,1 hPa 0,0 l/m 0 min 0 min 0 W/m 4,2 km/h (1 Bft) 93,62 %
22.10.2015 22:06 11,4 C 11,1 C 9,4 C 97 % 15 lf 1019,1 hPa 0,0 l/m 0 min 0 min 0 W/m 4,2 km/h (1 Bft) 95,74 %
22.10.2015 22:08 11,4 C 11,1 C 9,4 C 97 % 15 lf 1019,2 hPa 0,0 l/m 0 min 0 min 0 W/m 4,2 km/h (1 Bft) 95,74 %
22.10.2015 22:10 11,4 C 11,1 C 9,4 C 97 % 15 lf 1019,2 hPa 0,0 l/m 0 min 0 min 0 W/m 4,2 km/h (1 Bft) 95,74 %
22.10.2015 22:12 11,4 C 11,1 C 9,4 C 97 % 15 lf 1019,2 hPa 0,0 l/m 0 min 0 min 0 W/m 4,2 km/h (1 Bft) 95,65 %
22.10.2015 22:14 11,4 C 10,6 C 9,4 C 97 % 15 lf 1019,2 hPa 0,0 l/m 0 min 0 min 0 W/m 4,2 km/h (1 Bft) 100,00 %
22.10.2015 22:16 11,4 C 10,6 C 9,4 C 97 % 15 lf 1019,2 hPa 0,0 l/m 0 min 0 min 0 W/m 4,2 km/h (1 Bft) 95,74 %
22.10.2015 22:18 11,4 C 10,6 C 9,4 C 97 % 15 lf 1019,3 hPa 0,0 l/m 0 min 0 min 0 W/m 4,2 km/h (1 Bft) 93,62 %
22.10.2015 22:20 11,4 C 10,6 C 9,4 C 97 % 15 lf 1019,3 hPa 0,0 l/m 0 min 0 min 0 W/m 4,2 km/h (1 Bft) 93,62 %
22.10.2015 22:22 11,4 C 10,6 C 9,4 C 96 % 15 lf 1019,3 hPa 0,0 l/m 0 min 0 min 0 W/m 4,2 km/h (1 Bft) 93,62 %
22.10.2015 22:24 11,4 C 10,6 C 9,4 C 96 % 15 lf 1019,3 hPa 0,0 l/m 0 min 0 min 0 W/m 4,2 km/h (1 Bft) 97,83 %
22.10.2015 22:26 11,3 C 10,6 C 9,4 C 96 % 15 lf 1019,4 hPa 0,0 l/m 0 min 0 min 0 W/m 2,1 km/h (1 Bft) 97,87 %
22.10.2015 22:28 11,3 C 10,6 C 9,4 C 96 % 15 lf 1019,4 hPa 0,0 l/m 0 min 0 min 0 W/m 4,2 km/h (1 Bft) 95,74 %
22.10.2015 22:30 11,3 C 10,6 C 9,4 C 96 % 15 lf 1019,5 hPa 0,0 l/m 0 min 0 min 0 W/m 4,2 km/h (1 Bft) 97,87 %
22.10.2015 22:32 11,3 C 10,6 C 9,4 C 96 % 15 lf 1019,5 hPa 0,0 l/m 0 min 0 min 0 W/m 2,1 km/h (1 Bft) 97,87 %
22.10.2015 22:34 11,3 C 10,6 C 9,4 C 96 % 15 lf 1019,5 hPa 0,0 l/m 0 min 0 min 0 W/m 2,1 km/h (1 Bft) 97,87 %
22.10.2015 22:36 11,3 C 10,6 C 9,4 C 96 % 15 lf 1019,5 hPa 0,0 l/m 0 min 0 min 0 W/m 4,2 km/h (1 Bft) 95,65 %
22.10.2015 22:38 11,3 C 10,6 C 9,4 C 96 % 15 lf 1019,5 hPa 0,0 l/m 0 min 0 min 0 W/m 2,1 km/h (1 Bft) 97,87 %
22.10.2015 22:40 11,3 C 10,6 C 9,4 C 96 % 15 lf 1019,6 hPa 0,0 l/m 0 min 0 min 0 W/m 2,1 km/h (1 Bft) 95,74 %
22.10.2015 22:42 11,3 C 10,6 C 9,4 C 96 % 15 lf 1019,6 hPa 0,0 l/m 0 min 0 min 0 W/m 2,1 km/h (1 Bft) 93,62 %
22.10.2015 22:44 11,3 C 10,6 C 9,4 C 96 % 15 lf 1019,5 hPa 0,0 l/m 0 min 0 min 0 W/m 0,0 km/h (0 Bft) 97,87 %
22.10.2015 22:46 11,2 C 10,6 C 9,4 C 96 % 15 lf 1019,6 hPa 0,0 l/m 0 min 0 min 0 W/m 0,0 km/h (0 Bft) 97,83 %
22.10.2015 22:48 11,2 C 10,6 C 9,4 C 96 % 15 lf 1019,7 hPa 0,0 l/m 0 min 0 min 0 W/m 4,2 km/h (1 Bft) 95,74 %
22.10.2015 22:50 11,2 C 10,6 C 9,4 C 96 % 15 lf 1019,7 hPa 0,0 l/m 0 min 0 min 0 W/m 4,2 km/h (1 Bft) 97,87 %
22.10.2015 22:52 11,2 C 10,6 C 9,4 C 97 % 15 lf 1019,7 hPa 0,0 l/m 0 min 0 min 0 W/m 2,1 km/h (1 Bft) 97,87 %
22.10.2015 22:54 11,2 C 10,6 C 9,4 C 97 % 15 lf 1019,7 hPa 0,0 l/m 0 min 0 min 0 W/m 6,3 km/h (2 Bft) 95,74 %
22.10.2015 22:56 11,2 C 10,6 C 9,4 C 97 % 15 lf 1019,8 hPa 0,0 l/m 0 min 0 min 0 W/m 4,2 km/h (1 Bft) 95,74 %
22.10.2015 22:58 11,2 C 10,6 C 9,4 C 97 % 15 lf 1019,7 hPa 0,0 l/m 0 min 0 min 0 W/m 4,2 km/h (1 Bft) 97,87 %
22.10.2015 23:00 11,2 C 10,6 C 9,4 C 97 % 15 lf 1019,7 hPa 0,0 l/m 0 min 0 min 0 W/m 4,2 km/h (1 Bft) 97,83 %
22.10.2015 23:02 11,2 C 10,6 C 9,4 C 97 % 15 lf 1019,8 hPa 0,0 l/m 0 min 0 min 0 W/m 4,2 km/h (1 Bft) 95,74 %
22.10.2015 23:04 11,1 C 10,6 C 9,4 C 97 % 15 lf 1019,7 hPa 0,0 l/m 0 min 0 min 0 W/m 4,2 km/h (1 Bft) 95,74 %
22.10.2015 23:06 11,1 C 10,6 C 9,4 C 97 % 15 lf 1019,8 hPa 0,0 l/m 0 min 0 min 0 W/m 4,2 km/h (1 Bft) 91,49 %
22.10.2015 23:08 11,1 C 10,6 C 9,4 C 97 % 15 lf 1019,9 hPa 0,0 l/m 0 min 0 min 0 W/m 4,2 km/h (1 Bft) 93,62 %
22.10.2015 23:10 11,1 C 10,6 C 9,4 C 97 % 15 lf 1019,9 hPa 0,0 l/m 0 min 0 min 0 W/m 4,2 km/h (1 Bft) 97,87 %
22.10.2015 23:12 11,1 C 10,6 C 9,4 C 96 % 15 lf 1019,9 hPa 0,0 l/m 0 min 0 min 0 W/m 4,2 km/h (1 Bft) 95,65 %
22.10.2015 23:14 11,1 C 10,6 C 9,4 C 96 % 15 lf 1019,9 hPa 0,0 l/m 0 min 0 min 0 W/m 2,1 km/h (1 Bft) 93,62 %
22.10.2015 23:16 11,1 C 10,6 C 9,4 C 96 % 15 lf 1019,9 hPa 0,0 l/m 0 min 0 min 0 W/m 4,2 km/h (1 Bft) 93,62 %
22.10.2015 23:18 11,1 C 10,6 C 9,4 C 96 % 15 lf 1019,9 hPa 0,0 l/m 0 min 0 min 0 W/m 4,2 km/h (1 Bft) 95,74 %
22.10.2015 23:20 11,1 C 10,6 C 9,4 C 96 % 15 lf 1019,9 hPa 0,0 l/m 0 min 0 min 0 W/m 4,2 km/h (1 Bft) 95,74 %
22.10.2015 23:22 11,0 C 10,6 C 9,4 C 96 % 15 lf 1019,9 hPa 0,0 l/m 0 min 0 min 0 W/m 6,3 km/h (2 Bft) 93,48 %
22.10.2015 23:24 11,0 C 10,6 C 9,4 C 96 % 15 lf 1019,9 hPa 0,0 l/m 0 min 0 min 0 W/m 6,3 km/h (2 Bft) 95,74 %
22.10.2015 23:26 11,0 C 10,6 C 9,4 C 96 % 15 lf 1019,9 hPa 0,0 l/m 0 min 0 min 0 W/m 6,3 km/h (2 Bft) 93,62 %
22.10.2015 23:28 11,0 C 10,6 C 9,4 C 96 % 15 lf 1020,0 hPa 0,0 l/m 0 min 0 min 0 W/m 6,3 km/h (2 Bft) 93,62 %
22.10.2015 23:30 11,0 C 10,6 C 9,4 C 96 % 15 lf 1020,0 hPa 0,0 l/m 0 min 0 min 0 W/m 6,3 km/h (2 Bft) 95,74 %
22.10.2015 23:32 11,0 C 10,6 C 9,4 C 96 % 15 lf 1020,0 hPa 0,0 l/m 0 min 0 min 0 W/m 4,2 km/h (1 Bft) 95,74 %
22.10.2015 23:34 11,0 C 10,6 C 9,4 C 96 % 15 lf 1020,0 hPa 0,0 l/m 0 min 0 min 0 W/m 4,2 km/h (1 Bft) 93,48 %
22.10.2015 23:36 11,0 C 10,6 C 9,4 C 96 % 15 lf 1020,0 hPa 0,0 l/m 0 min 0 min 0 W/m 4,2 km/h (1 Bft) 91,49 %
22.10.2015 23:38 11,0 C 10,6 C 9,4 C 96 % 15 lf 1020,0 hPa 0,0 l/m 0 min 0 min 0 W/m 4,2 km/h (1 Bft) 97,87 %
22.10.2015 23:40 11,0 C 10,6 C 9,4 C 96 % 15 lf 1020,0 hPa 0,0 l/m 0 min 0 min 0 W/m 4,2 km/h (1 Bft) 95,74 %
22.10.2015 23:42 11,0 C 10,6 C 9,4 C 96 % 15 lf 1020,0 hPa 0,0 l/m 0 min 0 min 0 W/m 4,2 km/h (1 Bft) 95,74 %
22.10.2015 23:44 11,0 C 10,6 C 9,4 C 96 % 15 lf 1020,0 hPa 0,0 l/m 0 min 0 min 0 W/m 2,1 km/h (1 Bft) 95,74 %
22.10.2015 23:46 11,0 C 10,6 C 9,4 C 96 % 15 lf 1020,1 hPa 0,0 l/m 0 min 0 min 0 W/m 2,1 km/h (1 Bft) 95,65 %
22.10.2015 23:48 10,9 C 10,6 C 9,4 C 96 % 15 lf 1020,1 hPa 0,0 l/m 0 min 0 min 0 W/m 4,2 km/h (1 Bft) 95,74 %
22.10.2015 23:50 10,9 C 10,6 C 9,4 C 96 % 15 lf 1020,1 hPa 0,0 l/m 0 min 0 min 0 W/m 4,2 km/h (1 Bft) 97,87 %
22.10.2015 23:52 10,9 C 10,6 C 9,4 C 96 % 15 lf 1020,2 hPa 0,0 l/m 0 min 0 min 0 W/m 2,1 km/h (1 Bft) 97,87 %
22.10.2015 23:54 10,9 C 10,6 C 9,4 C 96 % 15 lf 1020,2 hPa 0,0 l/m 0 min 0 min 0 W/m 2,1 km/h (1 Bft) 95,74 %
22.10.2015 23:56 10,9 C 10,6 C 9,4 C 96 % 15 lf 1020,2 hPa 0,0 l/m 0 min 0 min 0 W/m 4,2 km/h (1 Bft) 93,62 %
22.10.2015 23:58 10,9 C 10,6 C 9,4 C 96 % 15 lf 1020,2 hPa 0,0 l/m 0 min 0 min 0 W/m 2,1 km/h (1 Bft) 100,00 %
_ Min-Zeit 04:20 00:34 00:34 00:00 00:00 06:06 - - - - 22:44 00:34
Minimum _ 9,8 C 9,4 C 8,3 C 90 % 0 lf 1012,9 hPa - - - - 0,0 km/h (0 Bft) 86,96 %
_ Max-Zeit 16:08 13:04 13:04 05:36 03:00 23:52 03:40 12:10 10:30 13:04 06:58 00:52
Maximum _ 13,8 C 15,6 C 13,3 C 98 % 15 lf 1020,2 hPa 0,2 l/m 2 min 2 min 274 W/m 33,5 km/h
SW (5 Bft)
100,00 %
Durchschnitt _ 11,4 C 11,6 C 10,2 C 96 % 8 lf 1015,0 hPa #0,6 l/m #10 min. #1:16 h 83 W/m 14,9 km/h (3 Bft) 96,13 %
© 2015 W. Hausmann